[{"header": {"dx": 0.06612293990616946, "dy": 0.0552356325346848, "nx": 98, "ny": 59, "la1": 35.046912555036876, "la2": 31.78801023549047, "lo1": -121.43107172385933, "lo2": -114.95102361305473, "refTime": "2026041312", "parameterCategory": 1, "parameterNumber": 2}, "data": [3.4, 3.6, 3.4, 3.4, 2.92, 2.75, 1.73, 1.1, 0.0, -0.57, -1.84, -2.84, -2.41, -1.88, -1.9, -2.6, -2.21, -2.0, -1.79, 0.89, 1.34, 2.24, 2.68, 3.13, 3.58, 4.02, 4.02, 3.13, 4.02, 4.41, 4.41, 3.95, 4.92, 4.92, 4.38, 3.58, 2.68, 2.41, 2.41, 2.68, 3.79, 5.21, 5.93, 7.07, 8.0, 9.9, 12.47, 14.07, 11.75, 4.02, 1.55, 2.29, 3.64, 4.65, 5.37, 6.06, 7.06, 8.24, 8.63, 8.55, 8.4, 7.35, 7.35, 6.64, 6.64, 8.0, 9.2, 10.68, 12.14, 13.99, 14.7, 13.05, 10.45, 5.64, 2.5, 2.84, 1.88, -0.0, -1.33, -3.79, -4.46, -4.8, -5.31, -3.97, -2.6, -0.63, 1.34, 2.68, 6.71, 11.52, 14.57, 14.27, 13.49, 12.3, 11.18, 10.7, 10.16, 8.63, 3.6, 4.05, 4.05, 3.6, 3.4, 3.4, 2.92, 1.73, 1.18, 0.0, -1.14, -2.3, -1.49, -1.2, -1.98, -2.21, -0.95, -1.26, 0.0, 0.0, 0.0, 1.79, 2.68, 3.13, 3.58, 4.02, 3.58, 2.68, 3.13, 3.07, 3.51, 3.74, 4.24, 5.16, 5.81, 4.66, 3.16, 2.68, 2.41, 2.68, 3.63, 5.93, 6.87, 8.03, 9.3, 11.53, 12.51, 11.2, 6.21, 3.16, 2.98, 3.72, 4.74, 5.06, 5.06, 6.39, 7.69, 8.3, 9.2, 9.49, 8.82, 7.89, 7.03, 7.03, 6.7, 7.67, 9.6, 10.68, 12.14, 13.99, 14.92, 13.78, 10.49, 6.98, 4.15, 3.49, 2.84, -0.0, -1.33, -3.79, -4.46, -4.8, -5.31, -3.97, -2.6, -0.63, 1.34, 2.68, 6.71, 11.52, 14.57, 14.27, 13.49, 12.3, 11.18, 10.7, 10.16, 8.63, 4.05, 4.05, 4.05, 4.05, 4.05, 3.4, 3.4, 2.92, 2.26, 0.59, -0.57, -1.7, -1.2, -0.54, 0.0, -0.63, -1.2, -0.95, -0.6, 0.0, 0.0, 0.0, 1.9, 2.8, 3.58, 3.13, 2.24, 2.68, 2.68, 2.68, 2.68, 3.07, 3.07, 3.04, 4.92, 6.17, 5.09, 3.84, 3.48, 3.84, 5.09, 6.68, 7.97, 8.6, 9.92, 10.29, 9.2, 6.21, 4.0, 4.46, 4.46, 4.81, 4.43, 4.74, 5.06, 6.06, 7.69, 9.2, 9.6, 9.6, 8.91, 7.35, 6.44, 6.44, 6.7, 7.69, 9.65, 11.2, 12.29, 13.75, 15.1, 15.61, 12.74, 7.11, 2.6, 2.23, 3.07, 0.61, -1.84, -3.48, -2.79, -2.86, -3.95, -3.95, -2.6, -0.63, 1.34, 2.68, 7.89, 13.05, 15.61, 14.21, 10.93, 8.46, 7.15, 8.36, 9.26, 8.82, 4.05, 4.05, 4.05, 4.05, 4.05, 4.05, 3.83, 3.4, 2.92, 2.4, 0.59, -0.57, -0.61, 0.0, 0.0, 0.0, 0.45, -0.95, -0.8, -0.85, 0.0, 0.0, 0.0, 1.0, 2.0, 3.13, 2.24, 2.68, 2.68, 2.24, 2.12, 2.12, 3.47, 4.92, 6.14, 5.4, 3.6, 5.4, 4.81, 5.69, 7.02, 7.64, 8.03, 7.69, 7.6, 7.21, 5.81, 5.59, 5.43, 5.82, 5.09, 4.81, 4.43, 4.65, 5.37, 6.39, 8.05, 9.2, 10.01, 9.83, 8.82, 6.94, 5.82, 5.43, 6.39, 8.06, 9.65, 10.65, 12.25, 13.86, 16.19, 17.25, 14.11, 6.26, 0.89, 0.89, 1.7, 0.65, -1.88, -3.14, -1.88, -1.0, -1.26, -2.12, -1.7, -0.0, 2.68, 5.64, 10.01, 13.99, 14.7, 11.4, 7.11, 4.02, 4.41, 6.98, 8.91, 9.36, 4.05, 4.05, 4.05, 4.05, 4.05, 4.05, 4.05, 3.83, 3.83, 3.4, 2.26, 1.1, 0.0, 0.0, 0.0, 0.6, 0.0, -0.95, -0.8, -0.87, 0.0, 0.0, 0.0, 0.0, 0.0, 1.79, 2.68, 2.68, 2.68, 2.6, 1.86, 1.24, 2.53, 4.01, 6.28, 5.93, 5.24, 7.07, 6.64, 6.14, 6.64, 6.7, 6.0, 5.64, 5.81, 6.26, 6.66, 6.55, 6.36, 6.0, 4.46, 4.43, 4.43, 4.65, 5.69, 7.06, 7.67, 9.08, 10.43, 10.75, 8.63, 5.43, 4.43, 4.65, 6.39, 8.06, 8.88, 9.27, 10.87, 13.04, 16.29, 18.88, 16.44, 7.89, 0.0, -0.6, 0.0, -0.0, -0.0, -2.91, -1.86, -0.0, -0.0, -0.89, -1.34, 0.63, 3.97, 9.83, 12.14, 12.65, 10.93, 8.46, 4.92, 3.13, 3.07, 6.66, 9.39, 9.39, 4.05, 4.05, 4.05, 4.05, 4.05, 4.05, 4.05, 4.08, 4.08, 4.08, 3.64, 2.96, 0.66, 0.0, 0.0, 0.0, 0.0, 0.0, 0.0, 0.0, 0.0, -0.66, -1.08, 0.0, 0.0, 1.13, 2.21, 2.23, 3.35, 2.23, 0.99, 0.0, 0.65, 4.01, 5.06, 5.06, 4.43, 7.06, 7.02, 4.46, 3.55, 4.43, 4.66, 6.22, 7.15, 7.6, 7.56, 6.98, 6.28, 5.34, 3.84, 4.11, 4.01, 4.74, 5.43, 7.42, 7.89, 8.4, 10.25, 11.18, 8.19, 4.46, 4.01, 4.65, 6.39, 8.06, 8.63, 8.55, 8.8, 12.14, 15.61, 17.25, 18.39, 14.21, 2.68, -1.2, -0.95, -0.0, 0.61, -1.86, -1.79, 0.0, 0.0, -1.49, -1.2, 0.61, 6.08, 11.09, 12.14, 9.83, 7.89, 8.01, 5.77, 2.68, 3.13, 6.71, 9.81, 8.91, 3.83, 3.83, 3.83, 4.05, 4.05, 4.05, 4.05, 4.32, 4.08, 4.08, 4.08, 3.84, 2.3, 1.4, 0.0, 0.0, 0.0, 0.99, 0.98, 0.73, 0.7, 0.0, 0.0, -0.78, 0.0, 0.96, 1.98, 3.2, 1.99, 0.0, -0.8, -0.57, 0.0, 3.48, 5.09, 5.06, 4.95, 6.87, 4.89, 1.88, 0.76, 1.8, 4.43, 6.8, 7.74, 6.71, 7.01, 7.21, 6.28, 6.4, 5.24, 3.79, 4.43, 5.09, 6.0, 6.54, 7.21, 7.71, 9.26, 10.02, 7.71, 3.79, 3.43, 4.43, 5.43, 7.67, 8.55, 7.71, 7.89, 11.06, 13.77, 14.13, 15.83, 17.62, 11.08, 1.7, -0.0, 0.61, 2.15, 1.79, -0.71, -0.53, -0.65, -1.4, -0.59, 1.41, 5.59, 8.3, 9.08, 7.47, 7.06, 7.56, 4.73, 3.07, 3.53, 6.55, 8.82, 7.92, 3.83, 3.83, 3.83, 3.83, 3.83, 4.08, 4.08, 4.08, 4.08, 4.08, 4.08, 4.08, 2.3, 1.88, 1.4, 0.0, 0.0, 0.76, 1.33, 1.49, 1.2, 1.61, 1.27, 0.78, 0.74, 1.01, 2.21, 0.95, 0.0, -0.99, -1.13, 0.0, 1.14, 4.22, 5.64, 5.94, 5.21, 5.3, 4.29, 1.58, 0.0, 0.65, 1.6, 3.16, 2.6, 2.68, 4.24, 6.54, 6.4, 6.32, 2.86, 3.48, 4.81, 5.43, 6.0, 6.28, 6.79, 7.45, 8.91, 8.8, 6.7, 3.49, 2.15, 4.19, 4.84, 6.94, 9.33, 8.46, 6.71, 8.49, 11.18, 12.52, 13.86, 15.63, 12.42, 3.6, 1.16, 1.84, 4.24, 3.58, 0.0, -1.27, -1.27, -0.66, 0.0, 1.26, 4.29, 5.72, 6.64, 6.64, 6.32, 5.01, 3.07, 2.91, 4.24, 6.79, 7.28, 7.28, 3.83, 3.83, 4.08, 4.08, 4.08, 4.08, 4.08, 4.08, 4.08, 4.08, 4.08, 4.08, 2.76, 1.49, 1.2, 0.71, 0.0, 0.87, 0.98, 0.98, 1.41, 2.23, 3.22, 2.41, 1.55, 2.16, 0.79, -0.7, -1.8, 0.0, 1.01, 1.11, 2.13, 3.11, 4.83, 4.83, 4.22, 3.72, 1.74, 0.0, -0.89, 0.0, 0.0, 0.0, 0.0, -0.0, 1.6, 3.6, 5.05, 5.09, 5.69, 4.46, 5.09, 5.43, 5.86, 6.51, 7.11, 8.01, 8.46, 7.56, 5.59, 3.22, 2.21, 3.22, 4.8, 6.94, 9.83, 9.26, 6.26, 7.11, 9.36, 11.6, 12.94, 12.96, 9.62, 2.84, 1.16, 3.07, 6.55, 6.22, 1.86, -1.94, -1.35, -0.61, 0.0, 1.36, 2.8, 4.65, 5.37, 5.37, 4.74, 2.48, 1.84, 2.23, 5.05, 7.47, 7.47, 7.2, 3.4, 4.08, 4.08, 4.08, 4.08, 4.08, 4.08, 4.08, 4.08, 4.08, 4.73, 4.73, 4.08, 3.45, 1.4, 1.4, 0.76, 1.55, 1.14, 1.23, 1.23, 2.49, 3.45, 3.91, 2.99, 1.99, 0.87, 0.0, 0.0, 1.07, 2.98, 2.06, 1.07, 0.88, 0.88, 1.99, 2.95, 1.88, 0.0, 0.45, -1.2, -1.2, -1.34, -1.79, -1.79, -0.89, -0.0, 0.95, 3.22, 3.79, 4.43, 5.09, 5.46, 5.6, 5.86, 6.55, 7.15, 7.6, 7.6, 5.81, 4.15, 3.16, 3.91, 3.16, 4.46, 6.64, 9.49, 9.4, 5.81, 5.64, 8.63, 10.98, 11.54, 10.28, 5.64, 1.4, 0.57, 2.17, 4.47, 5.36, 2.68, 0.0, -1.23, -0.67, 0.0, 0.69, 2.06, 3.91, 4.94, 4.22, 3.32, 1.76, 0.63, 1.35, 5.37, 7.67, 7.67, 6.7, 3.64, 4.08, 4.08, 4.08, 4.08, 4.08, 4.08, 4.08, 4.08, 4.47, 4.73, 4.73, 4.73, 4.1, 2.07, 1.33, 1.66, 2.32, 2.8, 2.29, 1.6, 1.63, 2.51, 2.47, 3.2, 1.8, 1.8, 0.88, 0.96, 1.98, 1.83, 1.33, 0.71, 0.6, 0.0, 0.87, 2.53, 1.6, 0.0, 0.0, 0.0, -0.63, -0.89, -2.24, -2.24, -0.95, -0.0, 0.71, 1.49, 2.41, 3.72, 4.74, 5.72, 6.07, 6.0, 7.28, 7.92, 6.71, 4.87, 2.68, 2.15, 2.11, 2.88, 3.11, 4.46, 6.95, 9.3, 9.2, 7.45, 6.55, 8.4, 9.18, 7.98, 3.53, 1.49, -0.0, -0.0, 1.34, 2.63, 3.07, 1.86, 0.0, 0.0, 0.0, 0.0, 0.67, 1.36, 2.72, 3.55, 1.8, 1.11, 0.7, 0.69, 1.4, 4.71, 7.68, 7.33, 3.16, 3.64, 3.64, 4.08, 4.08, 4.08, 4.08, 4.08, 4.08, 4.08, 4.47, 4.73, 4.73, 4.47, 4.47, 3.84, 3.22, 2.82, 3.47, 3.45, 4.1, 3.84, 4.08, 3.64, 3.2, 3.76, 3.76, 4.19, 4.12, 2.51, 2.15, 2.5, 2.63, 2.6, 2.4, 2.68, 2.15, 2.0, 1.34, 0.63, 0.89, 0.89, 0.45, 0.89, 1.34, 0.89, -0.0, -0.0, 0.71, 1.49, 1.74, 2.15, 3.79, 5.46, 6.44, 6.64, 7.47, 8.55, 7.45, 3.13, -0.0, -0.0, 2.26, 2.35, 1.55, 2.28, 5.51, 9.1, 10.55, 10.55, 8.82, 7.57, 5.44, 1.9, 0.45, -0.0, -0.0, -0.0, 0.63, 1.2, 0.71, -0.54, -0.57, 0.0, 0.0, 0.65, 1.33, 1.41, 1.13, 1.24, 0.6, 0.0, 0.0, 0.0, 0.71, 3.8, 6.14, 4.11, 0.8, 3.64, 3.64, 4.08, 4.08, 4.08, 4.08, 3.84, 3.84, 4.08, 4.47, 4.47, 4.47, 4.47, 4.45, 4.74, 4.12, 3.84, 4.12, 4.1, 4.47, 4.75, 5.08, 5.08, 4.74, 4.94, 5.21, 6.0, 6.51, 6.79, 6.47, 3.97, 4.02, 4.41, 4.41, 3.58, 2.68, 2.24, 1.26, 0.6, 0.95, 2.12, 2.12, 2.24, 1.79, 0.45, 0.0, 0.0, 0.45, 0.95, 1.6, 1.7, 2.12, 4.02, 5.31, 6.17, 6.61, 7.81, 9.8, 3.58, -0.57, -1.63, 0.76, 1.55, -0.0, 0.78, 3.16, 7.19, 10.81, 11.54, 11.5, 10.8, 5.59, 0.0, -1.79, -1.2, -0.0, -0.0, -0.0, -0.45, -1.26, -1.9, -1.58, -0.54, 0.0, 0.57, 1.9, 2.53, 1.9, 1.34, 0.63, 0.0, -0.66, -0.61, 0.0, 2.99, 3.55, 1.0, -0.45, 3.42, 3.42, 3.84, 3.84, 3.84, 3.84, 4.1, 4.1, 4.47, 4.47, 4.75, 4.47, 4.45, 4.74, 4.74, 4.74, 4.45, 4.75, 4.47, 5.08, 5.38, 5.69, 5.69, 5.98, 6.51, 6.41, 6.8, 7.51, 8.17, 8.33, 8.42, 6.26, 7.6, 4.47, 3.53, 3.07, 2.17, 1.86, 1.26, 1.7, 2.24, 2.68, 3.13, 3.39, 1.26, 0.0, 0.0, 0.0, 0.0, 0.63, 0.95, 2.23, 4.4, 2.23, 2.12, 1.79, 1.79, 9.33, 9.83, -0.0, -3.33, -0.0, -0.0, -0.0, -0.0, 1.49, 5.04, 7.27, 9.88, 9.56, 13.15, 12.47, 3.58, -0.6, -0.89, 0.63, 1.26, -0.0, -0.89, -1.7, -1.86, -1.24, 0.0, 0.0, 0.0, 1.88, 2.5, 2.17, 1.79, 1.34, 0.0, -0.65, -0.76, 0.0, 1.35, 0.53, 0.0, -0.45, 3.42, 3.42, 3.84, 3.84, 4.1, 4.1, 4.1, 4.1, 4.75, 4.47, 4.75, 4.45, 4.74, 4.74, 4.74, 5.01, 5.35, 5.06, 5.37, 5.65, 5.69, 6.28, 6.28, 6.79, 7.15, 7.61, 7.87, 8.22, 8.48, 9.11, 9.23, 8.77, 7.98, 6.71, 5.81, 4.82, 4.34, 2.4, 3.82, 2.17, 2.24, 4.47, 3.82, 2.4, 1.26, 0.0, 0.0, 0.0, 0.0, 0.0, 0.8, 2.6, 2.6, 1.6, 0.89, 0.45, 0.71, 7.6, 10.7, 1.74, -2.0, -1.14, -0.0, -0.0, -0.0, -0.0, 2.84, 2.84, 4.19, 6.64, 10.9, 17.04, 12.94, 1.86, -0.89, 1.26, 3.07, 2.4, 0.89, 0.45, -0.63, -0.8, 0.0, 0.0, -0.57, 0.0, 1.2, 1.2, 0.89, 1.2, 0.6, 0.0, -0.7, 0.0, 0.0, 0.0, 0.0, 0.0, 3.42, 3.42, 3.42, 4.1, 4.1, 4.1, 4.1, 4.1, 4.39, 4.45, 4.74, 4.74, 4.74, 5.01, 5.01, 5.35, 5.35, 5.06, 5.65, 5.65, 6.23, 6.57, 6.79, 7.35, 7.61, 8.15, 8.51, 8.91, 9.21, 9.39, 9.39, 9.54, 8.77, 7.6, 5.81, 3.07, 2.91, 3.32, 5.26, 4.92, 3.13, 3.13, 3.58, 2.24, 1.79, 2.24, 2.24, 2.24, 2.24, 1.58, 2.4, 2.12, 1.79, 1.34, 0.89, 0.63, 1.4, 5.37, 5.81, 1.4, -0.0, -1.13, -1.13, -1.4, 0.45, 0.0, 0.0, -0.0, 1.84, 7.28, 12.77, 18.27, 14.22, 1.79, -0.89, 1.2, 4.43, 6.08, 3.74, 2.6, 2.12, 0.89, 0.0, 0.0, 0.0, -0.65, -1.4, -1.26, -0.4, 0.0, 0.57, 0.0, 0.0, 0.6, 0.63, 0.0, 0.0, 0.0, 3.42, 3.42, 3.42, 4.1, 4.1, 4.1, 3.85, 4.12, 4.12, 4.43, 4.74, 5.01, 5.01, 5.35, 5.35, 5.35, 5.35, 5.93, 5.93, 6.51, 6.51, 7.07, 7.23, 7.76, 8.51, 8.91, 9.42, 9.42, 9.7, 9.7, 9.43, 9.43, 9.07, 8.24, 3.53, 3.13, 3.58, 5.36, 4.92, 6.26, 5.7, 2.63, 3.58, 1.2, 2.4, 2.4, 2.68, 3.13, 3.13, 3.13, 3.13, 2.68, 2.4, 2.68, 2.24, 2.8, 4.4, 4.77, 4.0, 2.4, 1.08, -0.0, -0.0, -0.0, 0.89, 0.45, -0.89, -1.79, 1.6, 11.62, 18.93, 15.04, 3.45, -1.34, -0.45, 0.61, 3.91, 7.18, 8.03, 7.07, 6.7, 5.43, 3.13, 1.26, 0.57, 0.8, -1.24, -1.7, -0.95, 0.6, 1.86, 2.17, 2.24, 2.6, 3.07, 2.0, 0.57, 0.57, 3.42, 3.42, 3.42, 3.42, 3.45, 3.72, 3.47, 4.12, 4.43, 4.74, 5.01, 5.35, 5.35, 5.35, 5.35, 5.35, 5.59, 5.93, 6.15, 6.51, 7.07, 7.23, 7.23, 8.0, 8.72, 9.21, 9.01, 9.63, 9.7, 9.7, 9.43, 9.39, 8.96, 8.64, 7.87, 5.77, 4.41, 6.17, 5.73, 5.26, 3.9, 3.04, 2.23, 1.86, 2.8, 2.4, 2.68, 3.13, 3.58, 3.58, 3.39, 3.39, 3.2, 3.39, 3.58, 4.02, 4.47, 4.34, 3.93, 3.79, 3.48, 3.35, 2.4, 1.79, 1.79, 0.45, 0.0, 0.0, 3.17, 13.51, 19.51, 7.06, -1.34, -2.24, -0.4, 0.61, 3.64, 7.68, 9.67, 9.3, 9.27, 9.74, 9.11, 2.21, 2.15, 2.17, 2.68, 0.0, 0.0, 0.45, 1.79, 3.07, 3.58, 3.58, 3.97, 3.53, 2.6, 2.6, 3.42, 3.42, 3.42, 3.45, 3.47, 3.22, 3.49, 4.12, 4.43, 4.74, 5.35, 5.35, 5.06, 5.35, 5.35, 4.46, 5.35, 5.59, 6.15, 6.95, 7.23, 7.61, 7.07, 6.44, 6.4, 7.4, 7.71, 7.47, 7.47, 8.48, 9.39, 9.39, 8.96, 8.96, 9.07, 8.64, 8.48, 8.42, 6.36, 5.94, 4.24, 3.74, 2.6, 3.72, 2.8, 2.4, 2.68, 3.13, 3.58, 3.58, 3.58, 3.39, 3.39, 3.82, 4.34, 4.77, 4.77, 4.77, 4.8, 4.8, 4.4, 3.72, 3.82, 1.34, 0.89, 2.0, 1.6, 2.73, 6.31, 13.02, 15.3, 10.02, 5.09, 3.45, 3.45, 3.32, 3.97, 6.66, 8.82, 9.83, 11.52, 12.05, 9.81, 4.93, 2.84, 3.07, 3.07, 3.53, 1.79, 0.89, 1.34, 3.13, 4.47, 4.47, 4.02, 4.02, 4.02, 4.02, 3.42, 3.42, 3.68, 3.22, 2.82, 3.49, 3.83, 4.12, 4.74, 5.35, 5.06, 5.06, 5.65, 5.93, 5.93, 5.59, 5.59, 5.59, 4.81, 5.09, 5.46, 7.07, 7.07, 6.44, 6.07, 5.43, 5.6, 7.31, 7.81, 8.48, 8.91, 8.91, 8.91, 8.91, 8.91, 8.91, 8.96, 8.96, 8.96, 8.64, 8.17, 7.87, 6.94, 6.04, 4.77, 2.97, 2.4, 3.13, 3.58, 3.58, 3.58, 3.58, 3.58, 3.82, 2.6, 3.07, 4.98, 2.8, 2.4, 4.4, 4.4, 4.0, 3.82, 3.58, 1.34, 1.6, 3.2, 4.09, 8.0, 10.62, 12.87, 15.1, 15.19, 14.44, 13.32, 11.62, 9.11, 6.64, 8.36, 11.18, 13.41, 14.3, 12.96, 7.56, 3.07, 2.68, 3.13, 3.6, 3.39, 2.6, 2.24, 3.53, 5.77, 4.47, 4.02, 4.02, 4.92, 4.92, 3.42, 3.42, 3.45, 3.04, 2.82, 3.49, 4.12, 4.74, 4.74, 5.06, 5.06, 5.65, 5.93, 5.93, 5.93, 5.93, 5.93, 5.93, 6.51, 5.46, 5.43, 6.41, 7.23, 7.61, 8.0, 7.48, 7.71, 7.81, 8.22, 8.22, 8.3, 8.48, 8.48, 8.48, 8.48, 8.48, 8.91, 8.96, 9.39, 9.11, 9.11, 8.77, 8.3, 7.87, 6.94, 5.26, 3.82, 3.39, 3.82, 3.58, 3.58, 3.58, 3.58, 4.02, 4.34, 3.07, 3.32, 3.07, 5.2, 4.4, 4.4, 4.77, 4.92, 4.02, 1.79, 1.6, 1.7, 4.92, 7.11, 10.02, 12.14, 15.24, 16.27, 13.86, 12.58, 11.95, 6.95, 5.49, 6.32, 9.74, 13.67, 15.18, 14.3, 10.71, 7.15, 3.58, 3.07, 3.6, 7.33, 4.77, 4.02, 4.24, 5.77, 4.43, 3.58, 4.02, 4.47, 4.47, 3.42, 3.45, 2.8, 3.04, 3.22, 3.76, 4.12, 4.74, 5.06, 5.06, 5.65, 5.93, 5.93, 5.93, 5.93, 5.93, 6.15, 6.51, 6.79, 7.07, 6.95, 6.95, 7.48, 8.0, 8.4, 8.51, 8.72, 8.3, 8.22, 8.22, 8.22, 8.22, 8.42, 8.42, 8.48, 8.48, 8.48, 8.91, 8.96, 9.11, 9.11, 8.64, 8.77, 8.3, 7.87, 6.94, 5.7, 4.34, 3.82, 3.82, 3.58, 3.58, 3.58, 4.02, 4.02, 4.77, 2.86, 3.84, 5.81, 4.77, 2.6, 3.07, 3.13, 2.68, 2.24, 1.34, 1.34, 1.6, 4.84, 7.44, 8.15, 12.46, 15.59, 8.05, 2.3, 3.43, 3.97, 3.61, 4.23, 7.09, 10.53, 12.44, 12.49, 12.05, 10.62, 7.45, 4.43, 4.43, 8.49, 8.91, 5.81, 3.98, 4.43, 4.02, 3.58, 3.58, 3.97, 3.97, 3.42, 3.42, 3.45, 3.47, 3.47, 4.12, 4.42, 4.74, 5.35, 5.35, 5.59, 5.93, 5.93, 5.93, 6.15, 6.15, 6.51, 6.51, 7.07, 7.23, 7.48, 7.48, 7.48, 8.0, 8.4, 8.51, 8.51, 8.72, 8.3, 8.3, 8.22, 8.22, 8.22, 8.22, 8.22, 8.42, 8.42, 8.48, 8.48, 8.48, 8.64, 8.64, 8.33, 8.3, 7.87, 7.4, 6.61, 5.26, 4.34, 4.34, 3.82, 4.02, 4.02, 4.02, 4.02, 4.02, 2.4, 3.45, 4.98, 3.07, 2.68, 3.13, 4.02, 3.13, 2.24, 1.7, 1.26, 0.6, 0.99, 2.53, 3.68, 10.04, 8.01, -4.34, -4.8, -0.8, 0.0, 1.4, 2.7, 4.84, 7.09, 8.68, 8.91, 9.26, 9.83, 8.91, 7.15, 6.26, 7.6, 8.01, 4.92, 3.07, 3.39, 3.53, 3.53, 3.82, 4.3, 4.3, 3.45, 3.45, 3.45, 3.47, 3.84, 3.84, 4.74, 4.74, 5.35, 5.35, 5.59, 5.93, 5.93, 6.15, 6.15, 6.51, 6.51, 6.7, 7.07, 7.23, 7.48, 7.87, 8.0, 8.0, 8.0, 8.4, 8.4, 8.51, 8.72, 8.3, 8.22, 8.22, 8.22, 8.22, 7.81, 7.81, 8.22, 8.42, 8.48, 8.48, 8.64, 8.21, 8.17, 7.87, 7.87, 7.4, 7.74, 6.17, 5.26, 4.77, 4.77, 4.34, 3.82, 4.02, 4.02, 3.58, 2.24, 3.04, 5.81, 4.38, 3.13, 2.6, 2.6, 2.24, 1.7, 1.6, 1.26, -0.0, -0.0, -0.0, 2.24, 17.85, 16.07, 3.32, -0.0, 0.89, 0.0, 0.0, 2.06, 2.89, 4.05, 5.52, 6.35, 7.28, 7.47, 7.45, 7.56, 6.26, 5.36, 6.54, 5.64, 3.13, 2.8, 2.84, 2.79, 3.72, 3.72, 3.72, 3.85, 3.85, 4.12, 4.12, 4.12, 4.12, 4.74, 5.01, 5.35, 5.35, 5.59, 5.93, 5.93, 6.15, 6.51, 6.51, 6.7, 7.07, 7.07, 7.23, 7.23, 7.87, 8.0, 8.0, 8.4, 8.4, 8.0, 8.0, 8.3, 8.22, 8.22, 8.22, 8.22, 8.22, 7.81, 7.81, 7.81, 7.81, 8.0, 8.0, 8.17, 8.17, 8.17, 7.74, 7.87, 7.69, 7.4, 6.94, 6.47, 6.47, 5.99, 5.7, 4.34, 3.82, 3.82, 3.58, 3.13, 1.79, 4.92, 6.14, 4.47, 2.68, 1.79, 1.34, 1.2, 1.2, 0.8, -0.0, -0.0, 3.22, 8.0, 12.58, 16.95, 14.49, 12.56, 7.71, 2.17, 0.0, 1.03, 1.55, 2.06, 3.44, 4.87, 5.37, 5.69, 5.86, 5.77, 4.02, 3.53, 3.48, 6.53, 6.32, 3.13, 1.6, 2.0, 2.51, 2.84, 2.84, 4.12, 4.12, 4.12, 4.12, 4.12, 4.45, 4.45, 5.35, 5.35, 5.59, 5.93, 5.93, 6.15, 6.15, 6.51, 6.51, 6.7, 7.07, 7.07, 7.07, 7.23, 7.48, 8.0, 8.0, 8.4, 8.4, 8.0, 8.0, 8.22, 8.22, 8.22, 8.22, 8.22, 8.22, 7.81, 7.81, 7.81, 7.81, 8.0, 8.0, 8.0, 7.74, 7.74, 7.69, 7.69, 7.69, 7.84, 7.84, 7.4, 7.26, 7.26, 6.47, 5.81, 5.2, 4.34, 3.82, 3.39, 3.39, 3.82, 4.92, 6.26, 3.58, 2.24, 0.89, 0.89, 0.63, 0.6, 0.57, 4.02, 5.75, 8.0, 11.4, 12.07, 13.78, 15.24, 15.59, 9.28, 1.8, 0.0, 0.0, 0.76, 2.06, 3.4, 3.55, 3.78, 4.93, 4.87, 4.02, 2.91, 2.07, 3.55, 9.21, 7.2, 1.9, 0.0, 0.61, 1.61, 1.61, 4.12, 4.12, 4.12, 4.12, 4.45, 4.45, 4.45, 5.06, 5.35, 5.59, 5.93, 5.93, 6.15, 6.51, 6.51, 6.7, 6.7, 7.07, 7.07, 7.07, 7.48, 7.48, 8.0, 8.0, 8.0, 8.0, 8.22, 8.22, 8.22, 8.22, 8.22, 8.22, 7.81, 7.81, 7.71, 7.71, 7.71, 7.51, 7.51, 7.51, 7.51, 7.51, 7.69, 7.69, 7.26, 7.26, 7.69, 7.69, 7.69, 7.69, 7.26, 7.26, 6.94, 5.99, 3.51, 2.6, 4.77, 4.24, 2.12, 2.17, 5.36, 6.26, 4.02, 1.79, 1.79, 0.63, 0.6, 1.6, 5.36, 7.55, 9.06, 9.54, 10.25, 10.25, 11.09, 15.49, 14.92, 3.07, -0.7, 0.0, 0.0, 0.71, 1.95, 1.93, 2.88, 4.12, 3.6, 3.13, 2.5, 1.84, 2.48, 6.59, 11.12, 5.59, 0.57, 0.0, 0.53, 0.53, 4.12, 4.12, 4.12, 4.45, 4.45, 4.75, 5.06, 5.06, 5.06, 5.93, 5.93, 5.93, 6.15, 6.51, 6.51, 6.7, 6.7, 7.07, 7.34, 7.34, 7.48, 7.48, 7.48, 8.0, 8.0, 8.22, 8.22, 8.22, 8.22, 8.22, 8.22, 8.22, 7.81, 7.81, 7.71, 7.31, 7.31, 7.51, 7.51, 7.51, 7.51, 7.51, 7.26, 7.26, 7.26, 7.26, 7.26, 7.26, 7.26, 7.26, 7.26, 7.4, 7.4, 7.21, 6.72, 3.74, 5.4, 5.2, 2.12, 2.17, 3.51, 6.21, 4.92, 2.68, 1.34, 1.26, 1.26, 1.7, 4.92, 7.6, 9.39, 10.16, 9.11, 7.89, 8.46, 13.39, 16.09, 4.02, -0.54, 0.0, 0.0, 1.11, 1.71, 1.95, 2.06, 1.88, 1.2, 1.7, 2.21, 2.84, 3.14, 5.69, 11.83, 12.25, 6.85, 1.86, 0.0, 0.0, 4.12, 4.12, 4.45, 4.75, 4.75, 4.75, 5.06, 5.06, 5.06, 5.59, 5.93, 6.15, 6.15, 6.51, 6.51, 6.7, 6.7, 6.95, 7.34, 7.48, 7.48, 7.48, 7.48, 8.0, 8.22, 7.81, 7.81, 7.81, 7.81, 8.22, 8.22, 8.22, 7.81, 7.81, 7.71, 7.31, 7.31, 7.31, 7.51, 7.51, 7.51, 7.09, 7.01, 6.28, 6.07, 6.94, 7.21, 7.21, 7.21, 7.26, 7.26, 7.26, 7.26, 7.26, 7.26, 6.79, 6.79, 5.4, 3.47, 2.4, 2.8, 6.07, 3.95, 2.24, 0.63, 0.99, 1.9, 2.6, 2.68, 6.66, 9.81, 11.6, 10.45, 8.05, 6.95, 11.53, 14.42, 8.36, 2.12, 0.71, 1.16, 2.23, 2.3, 1.69, 0.0, 0.0, 0.63, 1.86, 3.07, 3.45, 3.45, 5.43, 8.93, 12.79, 13.18, 9.4, 3.07, 3.07, 4.1, 4.1, 4.75, 4.75, 4.75, 5.06, 5.06, 5.06, 5.06, 5.93, 5.93, 6.15, 6.51, 6.51, 6.51, 6.7, 6.95, 6.95, 7.34, 7.48, 7.48, 7.48, 7.48, 7.48, 7.71, 7.71, 7.71, 7.71, 7.81, 7.81, 7.81, 7.81, 7.81, 7.81, 7.71, 7.31, 7.31, 7.31, 7.31, 7.51, 7.01, 7.01, 7.01, 7.01, 6.72, 6.28, 5.59, 6.3, 6.79, 6.79, 7.21, 7.21, 7.21, 7.21, 7.21, 7.21, 6.79, 6.3, 4.66, 2.8, 3.32, 5.59, 3.07, 1.34, -0.0, 0.63, 1.86, 5.7, 5.81, 6.7, 9.11, 11.6, 12.49, 9.6, 6.88, 9.23, 11.99, 10.32, 7.11, 3.53, 2.5, 2.84, 2.32, 1.8, 1.73, 2.0, 3.09, 5.44, 5.94, 5.44, 4.93, 5.6, 8.67, 12.29, 13.6, 14.11, 11.28, 11.28, 4.47, 4.47, 4.47, 4.47, 4.75, 5.06, 5.06, 5.06, 5.06, 5.65, 5.93, 5.93, 6.51, 6.51, 6.51, 6.7, 6.7, 6.95, 6.95, 7.48, 7.48, 7.48, 7.48, 7.48, 7.71, 7.71, 7.71, 7.71, 7.71, 7.81, 7.81, 7.81, 7.81, 7.71, 7.71, 7.31, 7.31, 7.31, 7.31, 7.2, 7.01, 7.01, 7.01, 7.09, 7.01, 6.28, 5.75, 5.81, 6.3, 6.51, 6.6, 7.01, 7.01, 7.21, 7.21, 7.21, 7.01, 7.01, 6.79, 4.4, 4.4, 3.74, 2.6, 0.0, 0.0, 0.0, 0.89, 6.26, 8.49, 7.74, 6.4, 8.36, 12.07, 12.96, 8.63, 7.64, 9.27, 10.02, 9.26, 9.72, 7.01, 3.82, 5.57, 5.7, 6.71, 8.3, 9.86, 9.68, 9.4, 7.56, 5.86, 5.6, 7.06, 10.18, 13.42, 14.35, 14.35, 14.35, 4.47, 4.47, 4.47, 4.47, 5.08, 5.37, 5.37, 5.37, 5.37, 5.65, 5.93, 5.93, 6.15, 6.51, 6.51, 6.7, 6.7, 6.7, 6.95, 6.95, 7.34, 7.48, 7.48, 7.48, 7.48, 7.71, 7.71, 7.71, 7.35, 7.2, 7.31, 7.71, 7.71, 7.71, 7.71, 7.31, 7.31, 7.31, 7.2, 6.8, 6.8, 7.01, 7.01, 7.51, 7.51, 7.09, 6.79, 6.3, 6.3, 6.72, 6.72, 6.6, 7.01, 7.01, 7.01, 7.01, 7.01, 7.09, 7.51, 7.51, 5.34, 3.32, 0.8, 0.0, 0.0, -0.63, 0.0, 4.4, 8.41, 8.49, 5.75, 5.31, 9.39, 13.82, 11.08, 6.08, 3.79, 5.59, 8.36, 10.52, 10.63, 8.46, 7.12, 8.96, 10.6, 11.87, 13.84, 13.88, 12.14, 8.48, 5.86, 4.93, 5.94, 8.55, 12.22, 13.64, 14.56, 14.56, 4.75, 4.75, 4.75, 4.75, 5.08, 5.08, 5.37, 5.37, 5.37, 5.65, 5.65, 5.65, 6.15, 6.51, 6.51, 6.51, 6.7, 6.7, 6.7, 6.95, 6.95, 7.34, 7.48, 7.48, 7.48, 7.48, 7.48, 7.48, 7.31, 7.35, 6.8, 7.31, 7.31, 7.71, 7.31, 7.31, 7.31, 7.2, 7.2, 6.8, 6.8, 6.8, 7.01, 7.51, 7.51, 7.51, 7.01, 7.01, 6.79, 6.79, 6.79, 6.6, 7.01, 7.01, 7.01, 7.01, 7.43, 7.51, 7.31, 7.71, 7.51, 2.4, 2.4, 0.45, 0.0, 0.0, 0.0, 1.24, 6.58, 8.49, 6.71, 5.81, 8.36, 13.77, 16.09, 8.01, 1.26, 1.86, 5.44, 8.67, 9.28, 8.05, 6.36, 6.52, 10.11, 12.78, 14.9, 15.02, 12.77, 8.19, 5.16, 4.24, 5.64, 7.12, 9.74, 12.62, 13.4, 13.4, 4.75, 4.75, 4.75, 5.08, 5.08, 5.08, 5.37, 5.37, 5.37, 5.65, 5.65, 5.65, 5.65, 6.51, 6.51, 6.51, 6.51, 6.7, 6.7, 6.7, 6.95, 7.34, 7.34, 7.48, 7.48, 7.48, 7.48, 7.48, 7.48, 7.31, 7.2, 7.2, 7.31, 7.31, 7.31, 7.31, 7.2, 7.2, 7.2, 6.8, 6.8, 6.8, 6.8, 7.43, 7.51, 7.51, 7.01, 7.01, 7.01, 7.21, 7.21, 7.01, 7.01, 7.01, 7.01, 7.01, 7.51, 7.51, 7.31, 7.51, 6.79, 4.8, 3.72, 3.39, 2.0, 1.58, 1.74, 2.41, 4.8, 7.15, 7.6, 8.49, 9.6, 12.09, 14.28, 11.52, 5.77, 3.51, 5.94, 7.06, 6.36, 3.13, 2.5, 3.14, 6.64, 11.49, 14.26, 14.7, 11.54, 7.01, 3.82, 3.51, 4.92, 6.71, 8.05, 11.53, 12.35, 12.35, 4.75, 4.75, 4.75, 5.08, 5.08, 5.08, 5.08, 5.37, 5.37, 5.65, 5.65, 5.65, 5.65, 5.88, 6.51, 6.51, 6.51, 6.51, 6.7, 6.7, 6.7, 6.7, 6.95, 7.34, 7.48, 7.48, 7.48, 7.48, 7.48, 7.48, 7.08, 6.95, 6.95, 7.2, 7.2, 7.2, 6.8, 6.8, 6.8, 6.8, 6.8, 6.8, 6.8, 7.01, 7.51, 7.51, 7.01, 7.01, 7.01, 7.01, 7.01, 7.01, 7.01, 7.01, 7.01, 7.01, 7.43, 7.51, 7.43, 7.01, 6.51, 6.36, 5.2, 4.8, 4.09, 3.72, 3.6, 3.83, 4.66, 6.21, 7.6, 9.39, 10.73, 11.06, 10.73, 10.02, 10.32, 10.16, 9.81, 7.35, 2.86, 0.63, 0.57, 2.0, 4.87, 9.83, 12.07, 11.18, 8.01, 4.88, 3.98, 3.58, 4.02, 5.77, 6.22, 7.57, 10.71, 10.71, 4.75, 4.75, 4.75, 5.08, 5.08, 5.08, 5.08, 5.37, 5.37, 5.65, 5.65, 5.65, 5.65, 5.65, 6.15, 6.15, 6.51, 6.51, 6.51, 6.7, 6.7, 6.7, 6.7, 6.95, 7.34, 7.48, 7.48, 7.48, 7.48, 7.48, 7.48, 7.08, 6.95, 6.95, 7.2, 6.8, 6.8, 6.8, 6.8, 6.8, 6.8, 6.8, 7.01, 7.01, 7.51, 7.51, 7.01, 7.01, 7.01, 7.01, 7.01, 7.01, 7.01, 7.01, 7.01, 7.01, 7.43, 7.01, 7.01, 7.01, 7.01, 6.51, 6.36, 3.6, 2.8, 3.72, 2.97, 3.95, 4.85, 5.81, 7.6, 8.46, 11.57, 11.15, 8.49, 5.36, 9.11, 14.4, 16.09, 10.52, 1.86, -0.0, 0.45, 2.24, 3.53, 5.32, 7.12, 6.71, 5.36, 4.47, 4.02, 3.58, 4.02, 5.31, 6.22, 7.12, 8.94, 8.94, 4.75, 4.75, 4.75, 5.08, 5.08, 5.08, 5.08, 5.08, 5.37, 5.65, 5.65, 5.65, 5.65, 5.65, 5.65, 6.15, 6.15, 6.51, 6.51, 6.51, 6.51, 6.7, 6.7, 6.95, 7.34, 7.34, 7.48, 7.48, 7.48, 7.48, 7.48, 7.08, 6.95, 6.95, 7.2, 6.8, 6.8, 6.8, 6.8, 6.8, 6.8, 6.8, 6.51, 6.28, 6.6, 7.01, 7.01, 7.01, 7.01, 7.01, 7.01, 7.01, 7.01, 7.43, 7.43, 7.43, 7.01, 7.01, 7.01, 7.01, 7.01, 6.51, 6.79, 3.2, 2.54, 4.24, 3.47, 4.38, 4.85, 5.36, 6.65, 7.89, 11.4, 12.75, 7.6, 4.15, 6.07, 14.28, 19.21, 13.84, 4.02, 0.45, 1.2, 2.15, 3.07, 4.11, 5.02, 4.3, 4.43, 4.02, 4.02, 4.02, 4.02, 5.31, 5.75, 6.55, 7.92, 8.46, 4.75, 4.75, 4.75, 4.75, 5.08, 5.08, 5.08, 5.08, 5.37, 5.37, 5.65, 5.65, 5.65, 5.65, 5.65, 5.93, 5.93, 6.15, 6.15, 6.51, 6.51, 6.51, 6.7, 6.7, 6.95, 6.95, 6.95, 6.95, 6.95, 6.95, 6.95, 6.95, 6.95, 7.2, 7.2, 7.2, 6.8, 6.8, 6.8, 6.8, 6.8, 6.8, 6.28, 5.34, 6.72, 7.01, 7.01, 7.01, 7.01, 7.01, 6.8, 6.8, 6.8, 7.2, 7.2, 6.8, 7.2, 7.2, 6.8, 6.8, 7.01, 6.51, 6.4, 3.04, 2.6, 4.77, 5.2, 4.85, 4.47, 4.47, 4.85, 7.06, 10.52, 14.55, 13.65, 6.07, 4.65, 11.2, 15.83, 11.62, 3.58, 1.7, 2.15, 2.53, 3.49, 4.66, 3.72, 3.6, 3.39, 3.53, 3.97, 3.97, 3.97, 4.87, 5.16, 6.11, 7.01, 7.92, 4.47, 4.47, 4.75, 4.75, 5.08, 5.08, 5.08, 5.08, 5.37, 5.37, 5.37, 5.65, 5.65, 5.65, 5.65, 5.65, 5.93, 5.93, 6.15, 6.15, 6.15, 6.51, 6.51, 6.7, 6.95, 6.95, 6.95, 6.95, 6.95, 6.95, 6.95, 6.95, 6.95, 7.2, 7.2, 7.2, 7.2, 6.8, 6.8, 6.8, 6.67, 6.67, 6.8, 6.28, 6.28, 6.51, 6.6, 6.6, 6.8, 6.8, 6.8, 6.8, 6.8, 6.8, 6.8, 6.8, 6.8, 6.8, 6.8, 6.8, 6.8, 6.28, 5.6, 5.81, 5.2, 5.2, 3.95, 3.95, 4.02, 4.47, 4.85, 5.75, 9.39, 12.31, 13.2, 9.33, 7.21, 7.69, 6.94, 2.68, 1.34, 1.9, 2.53, 2.84, 3.16, 3.48, 3.14, 2.5, 2.91, 3.51, 3.53, 3.97, 3.97, 5.16, 5.16, 5.16, 5.64, 7.01, 4.47, 4.47, 4.75, 4.75, 4.75, 4.75, 5.08, 5.08, 5.08, 5.08, 5.37, 5.37, 5.65, 5.65, 5.65, 5.65, 5.93, 5.93, 6.15, 6.15, 6.15, 6.15, 6.51, 6.51, 6.95, 6.95, 6.95, 6.95, 6.95, 6.95, 6.95, 6.95, 6.95, 6.95, 6.95, 7.2, 7.2, 6.8, 6.8, 6.8, 6.67, 6.8, 6.8, 6.8, 6.67, 6.4, 6.51, 6.28, 6.67, 6.8, 6.8, 6.8, 6.8, 6.8, 6.8, 6.8, 6.8, 6.8, 6.8, 6.8, 6.67, 6.28, 6.4, 5.81, 4.8, 4.77, 2.12, 4.34, 2.68, 4.47, 4.92, 5.81, 8.49, 9.77, 11.21, 14.21, 14.17, 10.25, 1.58, -1.2, -0.6, 1.2, 1.61, 2.07, 2.3, 2.23, 1.88, 1.9, 2.5, 2.91, 3.39, 3.82, 3.82, 5.16, 5.16, 4.66, 4.24, 4.24, 4.47, 4.47, 4.47, 4.75, 4.75, 4.75, 4.75, 5.08, 5.08, 5.08, 5.08, 5.37, 5.37, 5.65, 5.65, 5.65, 5.93, 5.93, 5.93, 6.15, 6.15, 6.15, 6.15, 6.41, 6.41, 6.56, 6.95, 6.95, 6.95, 6.95, 6.95, 6.95, 6.95, 6.95, 6.95, 6.95, 6.8, 6.8, 6.8, 6.8, 6.8, 6.8, 6.8, 7.2, 7.2, 6.8, 6.51, 6.28, 6.28, 6.67, 6.67, 6.67, 6.67, 6.8, 6.8, 6.8, 6.8, 6.67, 6.67, 6.67, 6.28, 6.28, 5.6, 5.81, 4.4, 4.77, 4.77, 4.34, 2.24, 4.02, 4.92, 5.81, 7.6, 8.01, 9.54, 11.56, 15.49, 18.04, 8.82, 0.0, -0.8, 0.0, 0.61, 0.66, 0.66, 1.33, 1.16, 1.61, 2.5, 3.07, 3.82, 4.24, 4.73, 4.93, 4.66, 4.41, 4.41, 4.41, 4.47, 4.47, 4.47, 4.75, 4.75, 4.75, 4.75, 4.75, 4.75, 5.08, 5.37, 5.37, 5.37, 5.37, 5.37, 5.65, 5.93, 5.93, 5.93, 6.15, 6.15, 6.15, 6.41, 6.41, 6.41, 6.41, 6.56, 6.95, 6.95, 6.95, 6.95, 6.95, 6.95, 6.95, 6.95, 6.95, 6.8, 6.8, 6.8, 6.8, 6.8, 6.56, 6.8, 6.8, 6.8, 6.8, 6.8, 6.28, 6.28, 6.67, 6.67, 6.67, 6.67, 6.67, 6.67, 6.67, 6.67, 6.67, 6.67, 6.28, 6.28, 6.28, 5.75, 5.75, 4.8, 5.2, 4.77, 4.34, 1.79, 3.58, 4.92, 5.81, 6.71, 8.05, 8.9, 9.7, 11.95, 16.14, 17.83, 11.75, 2.24, 0.0, 0.0, 0.0, 0.0, 0.51, 0.61, 1.88, 2.53, 3.45, 4.0, 4.66, 5.05, 5.34, 5.59, 5.59, 5.59, 5.59, 4.47, 4.47, 4.47, 4.75, 4.75, 4.47, 4.47, 4.47, 4.47, 4.75, 5.06, 5.06, 5.06, 5.06, 5.06, 5.65, 5.93, 5.93, 5.93, 5.93, 6.41, 6.41, 6.41, 6.41, 6.41, 6.41, 6.56, 6.95, 6.95, 6.95, 6.95, 6.95, 6.95, 6.95, 6.95, 6.56, 6.8, 6.8, 6.8, 6.56, 6.56, 6.95, 6.56, 6.8, 6.8, 6.8, 6.8, 6.8, 6.67, 6.67, 6.67, 6.03, 6.03, 6.28, 6.28, 6.28, 6.28, 6.28, 6.28, 6.28, 6.13, 5.75, 5.75, 5.08, 5.81, 4.8, 4.77, 2.17, 1.79, 2.24, 4.92, 5.36, 5.81, 7.6, 8.49, 8.36, 9.54, 12.04, 15.59, 17.7, 13.68, 3.58, 0.0, 0.0, 0.0, 0.0, 0.61, 1.33, 2.51, 3.14, 6.32, 4.66, 5.05, 5.34, 5.34, 5.34, 5.34, 5.34, 4.47, 4.47, 4.75, 4.47, 4.47, 4.47, 4.47, 4.47, 4.47, 4.75, 4.75, 5.06, 5.06, 5.06, 5.06, 5.35, 5.59, 5.59, 5.59, 5.59, 6.23, 6.41, 6.41, 6.41, 6.41, 6.41, 6.41, 6.95, 6.95, 6.95, 6.95, 6.95, 6.95, 6.95, 6.95, 6.56, 6.56, 6.56, 6.56, 6.56, 6.95, 6.95, 6.56, 6.56, 6.8, 6.67, 6.67, 6.67, 6.67, 6.41, 6.41, 6.03, 6.03, 6.13, 6.28, 6.28, 6.28, 6.28, 6.28, 6.13, 5.75, 5.75, 5.75, 5.37, 5.08, 5.4, 4.77, 2.17, 2.17, 2.24, 4.85, 4.92, 5.36, 6.26, 7.15, 7.11, 8.33, 10.02, 11.09, 14.07, 18.33, 14.54, 2.5, 0.0, 0.0, 0.0, 0.73, 1.8, 2.73, 5.69, 5.01, 2.8, 2.4, 2.4, 2.8, 3.07, 3.07, 3.07, 4.75, 4.75, 4.47, 4.47, 4.47, 4.47, 4.47, 4.47, 4.75, 4.75, 4.75, 5.06, 5.06, 5.06, 5.35, 5.35, 5.35, 5.59, 5.59, 5.86, 5.86, 6.03, 6.41, 6.41, 6.41, 6.41, 6.41, 6.95, 6.95, 6.95, 6.95, 6.95, 6.95, 6.95, 6.56, 6.56, 6.56, 6.56, 6.95, 6.95, 6.95, 6.56, 6.41, 6.41, 6.41, 6.41, 6.41, 6.41, 6.41, 6.41, 6.41, 6.03, 5.86, 5.86, 6.13, 6.13, 6.13, 6.13, 6.13, 5.75, 5.75, 5.75, 5.21, 5.21, 5.47, 5.4, 4.4, 4.34, 4.77, 2.6, 2.17, 4.02, 4.92, 5.81, 6.26, 6.65, 7.42, 8.63, 9.08, 9.2, 14.7, 20.28, 11.45, 0.61, 0.0, 0.7, 1.23, 2.11, 3.11, 1.88, 1.6, 0.89, 1.34, 1.79, 1.79, 1.79, 1.79, 1.79, 4.47, 4.47, 4.47, 4.47, 4.47, 4.47, 4.75, 4.75, 4.75, 4.75, 4.75, 4.75, 5.06, 5.35, 5.35, 5.35, 5.35, 5.59, 5.59, 5.86, 5.86, 5.86, 6.03, 6.41, 6.41, 6.41, 6.41, 6.79, 6.95, 6.95, 6.95, 6.95, 6.95, 6.41, 6.41, 6.56, 6.56, 6.95, 6.95, 6.95, 6.95, 6.41, 6.41, 6.41, 6.41, 6.41, 6.41, 6.41, 6.41, 6.41, 6.41, 6.03, 5.86, 5.86, 5.86, 6.13, 6.13, 5.75, 5.75, 5.75, 5.75, 5.58, 5.21, 5.21, 4.84, 4.98, 4.8, 4.4, 4.34, 2.24, 1.79, 3.58, 4.92, 5.81, 5.81, 6.21, 7.11, 7.89, 8.4, 8.55, 10.8, 17.27, 19.08, 6.36, 0.0, 0.0, 1.3, 2.04, 2.48, 1.9, 1.34, 1.2, 1.26, 1.7, 2.12, 1.86, 1.86, 1.86, 4.1, 4.1, 4.1, 4.47, 4.47, 4.75, 4.45, 4.45, 4.45, 4.45, 4.45, 4.45, 4.74, 5.01, 5.35, 5.35, 5.35, 5.35, 5.59, 5.86, 5.86, 5.86, 5.86, 6.41, 6.41, 6.41, 6.41, 6.41, 6.41, 6.95, 6.95, 6.95, 6.41, 6.41, 6.41, 6.41, 6.95, 6.95, 6.95, 6.95, 6.41, 6.41, 6.41, 6.41, 6.41, 6.41, 6.41, 6.41, 6.41, 6.41, 6.03, 5.86, 5.86, 5.86, 5.86, 5.49, 5.75, 5.75, 5.75, 5.75, 5.58, 5.21, 5.21, 5.21, 4.65, 3.2, 2.4, 2.12, 2.24, 2.24, 2.24, 2.24, 4.47, 5.36, 5.36, 6.21, 6.65, 7.42, 7.89, 8.55, 9.2, 11.5, 18.08, 18.35, 4.87, -0.72, 1.3, 1.35, 2.07, 2.5, 2.24, 1.79, 1.7, 1.7, 2.12, 2.17, 2.17, 2.17, 4.1, 4.1, 4.1, 4.1, 4.12, 4.12, 4.12, 4.12, 4.12, 4.45, 4.45, 4.45, 4.74, 4.74, 5.01, 5.35, 5.35, 5.35, 5.59, 5.86, 5.86, 5.86, 5.86, 6.41, 6.41, 6.41, 6.41, 6.41, 6.41, 6.79, 6.79, 6.41, 6.41, 6.41, 6.41, 6.41, 6.95, 6.95, 6.95, 6.41, 6.41, 6.41, 6.41, 6.41, 6.15, 6.15, 6.15, 6.23, 5.86, 5.86, 5.86, 5.86, 5.86, 5.86, 5.49, 5.49, 5.49, 5.49, 5.75, 5.58, 5.21, 5.21, 5.21, 5.21, 4.65, 3.22, 2.4, 2.6, 2.17, 2.24, 2.68, 2.24, 2.17, 4.85, 4.92, 5.81, 6.65, 6.98, 7.21, 7.89, 8.4, 8.63, 11.88, 21.59, 15.61, -0.66, 0.0, 0.0, 0.0, 1.2, 2.17, 1.79, 1.34, 1.34, 1.79, 1.7, 1.7, 1.7, 4.1, 4.1, 4.1, 3.85, 4.12, 4.12, 4.12, 4.12, 4.12, 4.12, 4.45, 4.74, 4.74, 4.74, 5.01, 5.01, 5.01, 5.35, 5.35, 5.59, 5.86, 5.86, 5.86, 6.41, 6.41, 6.41, 6.41, 6.41, 6.41, 6.41, 6.41, 6.41, 6.41, 6.41, 6.41, 6.41, 6.95, 6.95, 6.41, 6.41, 6.41, 6.41, 6.41, 6.15, 6.15, 6.15, 6.23, 5.86, 5.86, 5.86, 5.86, 5.86, 5.86, 5.49, 5.49, 5.49, 5.49, 5.49, 5.29, 5.29, 4.94, 4.94, 5.21, 4.65, 4.65, 4.07, 2.21, 2.23, 2.23, 3.74, 3.95, 4.38, 2.6, 1.86, 4.38, 5.81, 6.21, 6.51, 6.98, 7.89, 8.14, 8.14, 10.02, 18.96, 2.4, -2.8, -1.58, -1.0, -1.2, 0.0, 0.89, 1.34, 0.89, 0.89, 0.89, 1.34, 1.34, 1.34, 4.1, 4.1, 3.85, 4.12, 4.12, 3.84, 3.84, 3.84, 4.12, 4.12, 4.74, 4.74, 4.74, 4.74, 5.01, 5.01, 5.01, 5.01, 5.35, 5.59, 5.59, 5.86, 5.86, 6.23, 6.41, 6.41, 6.41, 6.41, 6.15, 6.41, 6.41, 6.41, 6.41, 6.41, 6.41, 6.41, 6.79, 6.41, 6.41, 6.41, 6.41, 6.41, 6.41, 6.15, 6.15, 5.86, 5.86, 5.86, 5.86, 5.86, 5.86, 5.86, 5.86, 5.29, 5.29, 5.29, 5.29, 5.29, 5.29, 5.29, 5.29, 4.94, 4.71, 4.65, 4.65, 4.07, 2.21, 1.9, 1.9, 1.86, 3.58, 4.66, 4.57, 2.12, 2.54, 4.47, 5.75, 6.65, 7.11, 7.11, 7.45, 8.45, 9.39, 20.55, 3.13, -3.58, -2.24, -0.89, -0.89, -0.63, 0.4, 1.26, 1.2, 1.34, 1.34, 1.34, 1.34, 1.34, 3.85, 3.85, 3.85, 4.12, 3.84, 3.84, 4.12, 4.12, 4.12, 4.12, 4.43, 4.74, 4.74, 4.74, 4.74, 5.01, 5.01, 5.01, 5.35, 5.35, 5.59, 5.59, 5.59, 5.93, 5.93, 5.93, 6.15, 6.15, 6.15, 6.41, 6.41, 6.41, 6.41, 6.41, 6.41, 6.41, 6.41, 6.41, 6.41, 6.41, 6.41, 6.41, 6.41, 6.41, 6.23, 5.86, 5.86, 5.86, 5.86, 5.59, 5.59, 5.86, 5.29, 5.29, 5.29, 5.29, 5.29, 5.29, 5.29, 5.29, 5.29, 4.71, 4.37, 4.37, 4.37, 4.11, 3.49, 2.86, 1.2, 1.2, 1.9, 2.23, 2.6, 1.79, 1.34, 3.58, 4.85, 6.65, 7.55, 7.11, 7.11, 8.46, 15.63, 20.77, 5.81, -2.24, -1.86, -1.2, -1.16, -0.53, 0.65, 1.61, 1.9, 1.86, 2.12, 1.79, 1.79, 1.79, 3.45, 3.45, 3.72, 3.47, 3.47, 3.76, 3.76, 4.12, 4.12, 4.12, 4.12, 4.43, 4.74, 4.74, 4.74, 4.74, 5.01, 5.01, 5.01, 5.35, 5.59, 5.59, 5.59, 5.59, 5.93, 5.93, 6.15, 6.15, 6.15, 6.41, 6.41, 6.41, 6.41, 6.41, 6.41, 6.41, 6.41, 6.41, 6.41, 6.41, 6.41, 6.41, 6.41, 6.23, 5.86, 5.86, 5.86, 5.59, 5.59, 5.35, 5.35, 5.01, 5.29, 5.29, 5.01, 5.01, 5.01, 5.01, 5.01, 5.29, 5.29, 4.71, 4.71, 4.71, 4.43, 4.12, 3.49, 2.22, 1.2, 1.2, 1.49, 2.23, 2.12, 2.24, 1.79, 3.58, 4.85, 6.21, 7.42, 6.98, 6.51, 8.36, 13.76, 21.38, 14.11, 0.0, -2.4, -1.84, -1.13, -0.59, 0.61, 1.84, 2.15, 2.5, 2.5, 2.91, 2.91, 2.91, 3.22, 3.22, 3.47, 3.47, 3.47, 3.49, 3.49, 3.49, 4.12, 4.12, 4.12, 4.12, 4.43, 4.74, 4.74, 4.74, 5.01, 5.01, 5.01, 5.35, 5.35, 5.59, 5.59, 5.59, 5.59, 5.93, 5.93, 5.93, 6.41, 6.23, 6.23, 6.23, 6.41, 6.41, 6.41, 6.41, 6.41, 6.41, 6.41, 6.23, 6.23, 6.23, 6.23, 5.86, 5.86, 5.59, 5.59, 5.59, 5.35, 5.35, 5.01, 5.01, 5.01, 5.01, 5.01, 5.01, 5.01, 5.01, 5.01, 5.01, 4.74, 4.43, 4.43, 4.74, 4.74, 4.12, 3.49, 2.86, 2.22, 1.2, 1.49, 1.86, 3.2, 3.47, 3.58, 3.47, 3.47, 5.36, 6.65, 6.98, 6.65, 9.8, 11.6, 18.38, 20.0, 3.13, -2.63, -2.07, -1.27, -0.0, 0.59, 1.8, 2.79, 2.86, 3.45, 3.45, 3.45, 3.45, 3.47, 3.47, 3.47, 3.47, 3.22, 3.49, 3.49, 3.49, 3.83, 4.12, 4.12, 4.12, 4.43, 4.43, 4.43, 4.74, 4.74, 5.01, 5.01, 5.01, 5.35, 5.35, 5.59, 5.59, 5.59, 5.59, 5.59, 5.93, 5.93, 5.86, 5.86, 5.86, 5.86, 6.41, 6.41, 6.41, 6.41, 5.86, 6.23, 5.93, 5.59, 5.59, 5.59, 5.59, 5.59, 5.59, 5.59, 5.35, 5.35, 5.01, 5.01, 5.01, 5.35, 5.35, 5.35, 5.35, 5.35, 5.35, 5.01, 4.74, 4.74, 4.74, 4.45, 4.45, 4.74, 3.83, 3.49, 2.84, 2.84, 1.4, 1.49, 2.53, 2.53, 3.2, 3.6, 4.15, 3.58, 4.38, 5.81, 6.26, 7.6, 9.39, 10.28, 14.75, 22.11, 12.07, -0.45, -2.21, -0.59, -0.0, 0.59, 2.07, 3.78, 3.83, 3.32, 3.74, 3.74, 3.74, 3.04, 3.04, 3.04, 3.22, 3.49, 3.49, 3.49, 3.49, 3.49, 3.83, 4.12, 4.12, 4.12, 4.43, 4.43, 4.43, 4.43, 4.74, 5.01, 5.01, 5.01, 5.35, 5.35, 5.59, 5.59, 5.59, 5.59, 5.59, 5.59, 5.59, 5.59, 5.86, 5.59, 5.93, 5.93, 5.86, 5.86, 5.86, 5.59, 5.59, 5.59, 5.59, 5.59, 5.59, 5.59, 5.59, 5.35, 5.35, 5.35, 5.01, 5.01, 5.35, 5.35, 5.35, 5.35, 5.35, 5.35, 4.74, 4.74, 4.45, 4.45, 4.75, 4.75, 4.45, 4.12, 3.83, 3.49, 3.49, 2.82, 1.4, 1.2, 2.68, 2.41, 2.53, 4.0, 4.15, 4.15, 3.6, 4.66, 6.26, 7.11, 8.91, 10.25, 12.49, 18.76, 18.63, 4.47, -0.6, -1.2, -0.0, 1.16, 2.53, 4.0, 4.15, 2.8, 2.8, 2.8, 2.8, 3.04, 3.04, 2.82, 2.82, 3.49, 3.49, 3.49, 3.49, 3.49, 3.83, 4.12, 4.12, 4.12, 4.12, 4.12, 4.43, 4.43, 4.43, 5.01, 5.01, 5.01, 5.01, 5.01, 5.35, 5.59, 5.59, 5.59, 5.59, 5.59, 5.59, 5.59, 5.59, 5.59, 5.59, 5.59, 5.59, 5.59, 5.59, 5.59, 5.59, 5.59, 5.59, 5.59, 5.59, 5.59, 5.35, 5.35, 5.35, 5.35, 5.35, 5.35, 5.06, 5.06, 5.06, 5.06, 5.06, 5.06, 4.45, 4.75, 4.75, 4.75, 4.75, 4.75, 4.45, 4.12, 4.12, 3.76, 3.47, 3.04, 3.04, 2.36, 2.3, 2.41, 2.53, 3.6, 3.95, 4.02, 4.02, 4.47, 5.81, 7.15, 8.9, 10.25, 11.15, 14.3, 18.96, 13.21, 2.17, -1.2, -0.8, 0.71, 2.15, 3.32, 3.32, 2.8, 2.4, 2.4, 2.4, 2.82, 2.82, 2.82, 2.82, 3.22, 3.49, 3.49, 3.49, 3.49, 3.49, 3.83, 3.83, 3.83, 4.12, 4.12, 4.43, 4.43, 4.43, 4.74, 5.01, 5.01, 5.01, 5.01, 5.01, 5.35, 5.59, 5.59, 5.59, 5.59, 5.59, 5.59, 5.59, 5.59, 5.59, 5.59, 5.59, 5.59, 5.59, 5.59, 5.59, 5.59, 5.59, 5.59, 5.35, 5.35, 5.35, 5.35, 5.35, 5.35, 5.35, 5.06, 5.06, 5.06, 5.06, 5.06, 4.75, 4.75, 4.75, 4.75, 4.75, 4.75, 4.75, 4.45, 4.42, 3.84, 3.84, 3.47, 3.47, 3.45, 3.0, 2.8, 2.3, 2.41, 2.84, 2.6, 3.47, 4.02, 4.02, 4.47, 5.36, 7.15, 8.94, 10.28, 10.73, 11.6, 15.61, 16.54, 10.25, 1.34, -0.89, -0.0, 1.86, 3.07, 3.07, 2.6, 2.4, 2.4, 2.4, 2.82, 2.82, 2.82, 2.82, 3.22, 3.49, 3.49, 3.49, 3.49, 3.49, 3.83, 3.83, 3.83, 3.83, 4.12, 4.12, 4.43, 4.43, 4.74, 4.74, 5.01, 5.01, 5.01, 5.01, 5.35, 5.35, 5.35, 5.35, 5.35, 5.35, 5.35, 5.59, 5.59, 5.35, 5.35, 5.35, 5.35, 5.59, 5.59, 5.59, 5.59, 5.35, 5.35, 5.35, 5.35, 5.35, 5.35, 5.35, 5.06, 5.06, 5.06, 5.06, 5.06, 4.75, 4.75, 4.75, 4.75, 4.75, 4.75, 4.75, 4.75, 4.45, 4.45, 4.12, 4.12, 3.72, 3.45, 3.45, 3.45, 3.45, 3.0, 2.84, 2.48, 3.16, 2.6, 3.47, 3.47, 4.02, 4.47, 5.36, 7.15, 8.94, 9.83, 10.28, 11.15, 11.95, 15.77, 14.83, 7.89, 0.45, 0.45, 1.2, 2.68, 2.68, 2.24, 2.24, 2.24, 2.24, 2.82, 2.82, 2.82, 2.82, 3.22, 3.49, 3.49, 3.49, 3.49, 3.49, 3.83, 3.83, 3.83, 3.83, 4.12, 4.12, 4.43, 4.43, 4.74, 4.74, 5.01, 5.01, 5.01, 5.01, 5.35, 5.35, 5.35, 5.35, 5.35, 5.35, 5.35, 5.59, 5.59, 5.35, 5.35, 5.35, 5.35, 5.59, 5.59, 5.59, 5.59, 5.35, 5.35, 5.35, 5.35, 5.35, 5.35, 5.35, 5.06, 5.06, 5.06, 5.06, 5.06, 4.75, 4.75, 4.75, 4.75, 4.75, 4.75, 4.75, 4.75, 4.45, 4.45, 4.12, 4.12, 3.72, 3.45, 3.45, 3.45, 3.45, 3.0, 2.84, 2.48, 3.16, 2.6, 3.47, 4.02, 4.02, 4.47, 5.36, 7.15, 8.49, 8.94, 9.39, 9.26, 9.11, 12.7, 16.44, 13.64, 3.95, 0.45, 0.89, 2.24, 2.68, 2.24, 1.79, 1.79, 1.79]}, {"header": {"dx": 0.06612293990616946, "dy": 0.0552356325346848, "nx": 98, "ny": 59, "la1": 35.046912555036876, "la2": 31.78801023549047, "lo1": -121.43107172385933, "lo2": -114.95102361305473, "refTime": "2026041312", "parameterCategory": 1, "parameterNumber": 3}, "data": [-6.8, -7.2, -6.8, -6.8, -7.01, -6.6, -6.94, -6.61, -6.71, -6.23, -5.51, -4.55, -3.22, -2.5, -1.9, -1.74, -2.21, -1.0, -0.0, 0.0, 0.0, 0.0, 0.0, 0.0, 0.0, 0.0, 0.0, 0.0, 0.0, 0.73, 0.73, 0.79, 0.0, 0.0, -0.88, -2.68, -3.58, -3.22, -3.22, -3.58, -3.79, -3.47, -4.75, -4.71, -5.72, -6.09, -7.01, -7.82, -5.48, 0.0, 4.66, 5.34, 5.09, 5.43, 5.37, 5.3, 5.49, 4.5, 4.71, 3.88, 3.06, 3.27, 3.27, 3.69, 3.69, 4.0, 4.6, 4.58, 4.55, 4.66, 3.87, 3.07, 2.41, 1.41, 1.88, 2.84, 2.5, 3.13, 3.32, 3.79, 3.72, 2.4, 0.76, 0.66, 0.65, 0.63, 0.0, 0.0, 0.0, -1.54, -2.3, -3.75, -3.17, -2.31, 0.0, 0.76, 1.56, 2.35, -7.2, -6.95, -6.95, -7.2, -6.8, -6.8, -7.01, -6.94, -7.06, -6.71, -5.7, -3.83, -2.23, -2.4, -2.98, -2.21, -0.95, -1.26, -1.79, -1.34, -1.79, 0.0, 0.0, 0.0, 0.0, 0.0, 0.0, 0.0, 0.0, 0.61, 0.7, 1.49, 1.41, 1.47, 0.0, -1.55, -3.16, -3.58, -3.22, -3.58, -4.54, -4.75, -5.72, -6.42, -6.97, -7.69, -7.82, -5.6, -0.78, 3.16, 4.46, 4.46, 4.74, 5.06, 5.06, 5.59, 5.38, 5.28, 4.6, 3.95, 3.21, 3.15, 3.91, 3.91, 4.46, 4.6, 4.8, 4.58, 4.55, 4.66, 4.71, 3.83, 2.25, 1.55, 1.66, 2.79, 2.84, 3.13, 3.32, 3.79, 3.72, 2.4, 0.76, 0.66, 0.65, 0.63, 0.0, 0.0, 0.0, -1.54, -2.3, -3.75, -3.17, -2.31, 0.0, 0.76, 1.56, 2.35, -6.95, -6.95, -6.95, -6.95, -6.95, -6.8, -6.8, -7.01, -6.79, -7.13, -6.23, -5.09, -2.4, -2.17, -1.34, -0.63, -0.6, -0.95, -1.2, -2.24, -2.24, -2.68, -1.9, -1.4, 0.0, 0.0, 0.0, 0.0, 0.0, 0.0, 0.0, 0.61, 0.61, 0.76, 0.0, -1.03, -1.7, -3.07, -3.48, -3.07, -4.36, -5.94, -7.18, -7.82, -7.63, -7.12, -4.6, -0.78, 2.0, 3.72, 3.72, 4.01, 4.43, 4.74, 5.06, 5.3, 5.38, 4.6, 4.8, 3.69, 2.97, 3.27, 4.03, 4.83, 4.46, 5.38, 5.63, 5.6, 5.38, 5.35, 5.56, 3.9, 2.39, 0.79, 0.65, 1.49, 1.84, 3.07, 3.07, 3.48, 3.49, 2.15, 0.79, 0.79, 0.65, 0.63, 0.0, 0.0, -1.58, -3.07, -3.9, -3.95, -2.34, -0.77, 0.0, 1.52, 1.54, 1.47, -6.95, -6.95, -6.95, -6.95, -6.95, -6.95, -6.56, -6.8, -7.01, -7.21, -7.13, -6.23, -3.07, -2.68, -1.79, -0.89, 0.0, -0.95, -1.6, -2.54, -2.24, -2.68, -2.68, -2.0, -1.0, 0.0, 0.0, 0.0, 0.0, 0.0, -0.71, -0.71, -0.87, 0.0, -1.23, -2.16, -1.8, -2.16, -4.01, -5.69, -6.24, -6.88, -6.42, -5.38, -3.8, -2.4, 0.0, 1.6, 3.11, 3.33, 3.64, 4.01, 4.43, 5.43, 5.37, 5.59, 4.83, 4.6, 3.85, 3.02, 3.21, 3.09, 4.16, 4.65, 5.59, 5.64, 5.63, 5.68, 6.48, 6.24, 6.47, 4.7, 2.35, 0.0, 0.0, 0.0, 0.57, 2.6, 2.5, 2.51, 2.5, 2.0, 1.26, 0.71, 0.57, 0.89, 0.0, -1.41, -3.85, -4.66, -3.87, -2.28, -0.79, 0.0, 0.73, 1.55, 0.74, 0.78, -6.95, -6.95, -6.95, -6.95, -6.95, -6.95, -6.95, -6.56, -6.56, -6.8, -6.79, -6.61, -4.02, -3.13, -2.24, -1.2, -0.89, -0.95, -1.6, -3.47, -3.58, -3.13, -0.89, -0.45, -0.89, 0.0, 0.0, 0.0, 0.0, -0.65, -1.24, -1.86, -4.22, -4.81, -5.03, -4.75, -4.19, -4.71, -6.64, -7.68, -6.64, -5.21, -3.0, -1.41, 0.0, 0.0, 0.74, 1.45, 2.12, 3.0, 3.72, 4.43, 4.43, 5.43, 5.69, 5.49, 4.6, 3.78, 4.01, 3.07, 2.35, 3.11, 4.43, 5.43, 5.59, 5.64, 5.18, 5.41, 6.21, 6.9, 6.21, 5.51, 4.29, 1.58, -0.89, -1.2, 0.0, 2.24, 2.68, 1.16, 1.24, 0.89, 0.45, -0.0, -0.0, -0.63, -0.66, -3.02, -4.55, -4.46, -2.34, -0.77, 0.0, 0.0, 0.61, 0.74, 0.0, 0.0, -6.95, -6.95, -6.95, -6.95, -6.95, -6.95, -6.95, -6.41, -6.41, -6.41, -6.67, -6.51, -3.97, -3.13, -2.24, -1.79, -1.79, -2.24, -3.13, -4.47, -4.02, -3.97, -4.34, -3.58, -3.13, -3.39, -2.21, -1.49, -2.23, -1.49, -1.49, -1.79, -2.6, -4.81, -5.06, -5.06, -4.43, -5.49, -6.24, -6.7, -5.69, -4.43, -1.55, -0.69, 0.0, 0.0, 0.76, 1.55, 2.35, 2.29, 3.07, 4.11, 4.81, 4.74, 4.65, 4.12, 3.15, 3.06, 3.16, 3.19, 2.23, 2.98, 4.81, 5.43, 5.59, 5.64, 4.71, 3.88, 4.4, 4.55, 3.9, 4.7, 5.6, 3.95, 0.0, -0.6, 0.95, 2.68, 3.07, 1.24, -0.0, -0.89, -0.89, -0.99, -2.4, -3.07, -4.56, -4.75, -4.55, -3.02, -1.58, -0.73, -0.72, 0.0, 0.0, 0.0, -0.75, -0.74, -6.56, -6.56, -6.56, -6.95, -6.95, -6.95, -6.95, -6.79, -6.41, -6.41, -6.41, -6.03, -3.83, -2.8, -3.58, -1.79, -2.24, -2.97, -3.9, -4.41, -3.51, -4.92, -6.26, -6.21, -6.26, -5.73, -5.94, -6.4, -4.98, -2.68, -1.6, -1.7, -1.79, -3.48, -4.36, -5.06, -5.77, -5.72, -3.91, -2.5, -3.04, -3.6, -4.43, -3.4, -2.21, 0.0, 1.4, 2.4, 2.35, 3.2, 4.19, 3.79, 4.43, 3.64, 3.0, 2.9, 2.4, 2.31, 1.54, 2.31, 2.31, 3.79, 4.12, 4.43, 4.65, 4.6, 3.88, 2.31, 1.58, 1.58, 1.53, 2.23, 2.88, 3.06, 1.48, 0.57, 1.79, 3.07, 2.86, 0.0, -2.12, -2.63, -2.6, -2.8, -3.53, -5.64, -6.39, -5.28, -3.78, -2.99, -2.82, -2.75, -1.35, -0.61, -0.59, -1.45, -1.47, -1.44, -6.56, -6.56, -6.56, -6.56, -6.56, -6.41, -6.41, -6.41, -6.41, -6.41, -6.41, -6.41, -3.83, -2.5, -2.8, -1.34, -1.79, -3.04, -3.32, -3.74, -2.4, -2.68, -3.82, -6.21, -6.66, -7.08, -7.74, -6.64, -4.02, -2.97, -3.39, -4.47, -5.7, -6.32, -6.35, -6.68, -6.7, -6.06, -3.22, -1.58, -1.34, -2.6, -3.2, -3.16, -1.74, 0.0, 1.41, 2.9, 3.2, 4.22, 2.15, 3.48, 4.01, 3.11, 3.0, 2.35, 2.26, 1.49, 0.74, 1.6, 2.51, 2.79, 2.86, 3.35, 3.22, 3.09, 3.11, 0.77, 0.0, 0.0, 0.0, 0.0, 0.0, 0.78, 1.55, 1.8, 2.91, 3.07, 1.41, 0.0, -2.68, -3.82, -3.82, -3.97, -4.92, -5.67, -5.72, -5.0, -3.69, -3.69, -4.22, -3.76, -1.84, -1.16, -1.41, -2.26, -2.18, -2.18, -6.56, -6.56, -6.41, -6.41, -6.41, -6.41, -6.41, -6.41, -6.41, -6.41, -6.41, -6.41, -4.6, -3.74, -2.4, -2.12, -2.68, -3.47, -3.9, -3.9, -4.24, -3.35, -2.41, -3.22, -4.66, -5.4, -3.95, -3.51, -3.6, -5.36, -7.08, -8.87, -9.6, -9.33, -8.05, -6.44, -6.32, -5.58, -2.6, -0.45, -0.0, -0.89, -1.34, -0.89, 0.0, 0.45, 0.8, 1.8, 2.88, 3.64, 5.69, 3.72, 3.64, 3.11, 2.2, 1.63, 0.79, 0.73, 0.77, 0.76, 1.6, 2.41, 2.21, 2.41, 2.4, 3.09, 3.02, 1.54, 0.0, -0.79, -0.78, -0.72, -0.76, 0.0, 2.06, 2.84, 2.91, 1.84, 1.45, 0.69, -1.24, -4.52, -4.73, -4.88, -5.81, -6.11, -5.6, -5.43, -5.37, -5.37, -4.74, -3.72, -3.07, -2.79, -2.88, -2.99, -2.99, -3.6, -6.8, -6.41, -6.41, -6.41, -6.41, -6.41, -6.41, -6.41, -6.41, -6.41, -6.51, -6.51, -6.41, -5.75, -2.8, -2.8, -3.04, -4.66, -5.7, -6.14, -6.14, -6.23, -5.75, -4.89, -4.98, -4.98, -3.47, -3.13, -4.92, -7.52, -7.95, -8.24, -7.52, -5.29, -5.29, -4.98, -3.93, -2.5, -0.89, 0.0, -0.6, -0.6, -0.0, -0.0, -0.0, -0.0, 0.45, 0.95, 2.41, 3.79, 4.43, 4.36, 3.9, 2.8, 2.2, 1.45, 0.0, 0.0, 0.0, 0.0, 1.66, 3.16, 4.89, 3.16, 3.72, 3.69, 3.95, 2.89, 0.0, -1.41, -2.35, -2.06, -1.36, 0.0, 1.41, 2.8, 1.7, 0.54, 0.0, 0.0, 0.0, -1.79, -4.3, -5.32, -5.81, -6.22, -6.85, -6.52, -6.35, -6.32, -5.31, -4.11, -4.43, -4.73, -5.37, -4.6, -4.6, -4.46, -6.67, -6.41, -6.41, -6.41, -6.41, -6.41, -6.41, -6.41, -6.41, -6.15, -6.51, -6.51, -6.51, -5.86, -3.45, -3.32, -4.15, -5.81, -5.6, -6.3, -5.59, -6.51, -6.7, -5.75, -6.4, -3.6, -3.6, -4.38, -5.73, -5.94, -4.57, -3.32, -2.12, -1.2, -2.24, -3.47, -2.53, -0.8, 0.0, 0.0, -0.89, -0.63, -0.0, -0.0, -0.0, 0.95, 1.34, 2.12, 2.23, 3.22, 4.46, 4.74, 4.29, 3.79, 3.0, 2.18, 1.44, 0.0, -0.7, 0.0, 2.86, 4.93, 5.05, 5.43, 6.7, 6.95, 6.2, 4.6, 1.49, -1.45, -3.06, -3.53, -2.9, -0.59, 0.99, 2.68, 1.79, 0.0, -0.53, -0.61, -1.24, -1.34, -1.79, -3.58, -4.47, -5.32, -6.11, -6.13, -5.69, -3.6, -3.87, -4.87, -6.22, -7.01, -7.07, -6.14, -5.86, -3.16, -6.67, -6.67, -6.41, -6.41, -6.41, -6.41, -6.41, -6.41, -6.41, -6.15, -6.51, -6.51, -6.15, -5.59, -4.94, -4.84, -5.08, -5.21, -5.75, -5.86, -6.03, -6.41, -6.67, -6.4, -5.01, -5.01, -5.24, -5.29, -3.14, -2.86, -1.88, -0.53, 0.65, 1.2, 0.0, -1.61, -1.0, 0.0, 0.63, 0.0, 0.0, 0.0, 0.0, 0.0, 0.0, 1.34, 1.79, 2.12, 2.23, 2.6, 2.86, 3.79, 3.9, 4.03, 3.69, 2.99, 3.88, 1.49, 0.0, 1.34, 5.36, 6.79, 6.28, 6.98, 9.11, 10.23, 9.85, 8.29, 4.87, 1.47, -0.69, -2.04, -1.9, 0.0, 0.89, 1.79, 1.79, 0.63, -0.6, -2.12, -2.17, -1.7, -1.34, -2.24, -2.6, -3.32, -4.24, -3.39, -1.86, -1.2, -2.24, -4.02, -6.26, -7.12, -7.6, -7.68, -4.11, -1.6, -6.67, -6.67, -6.41, -6.41, -6.41, -6.41, -6.03, -6.03, -6.41, -6.15, -6.15, -6.15, -5.59, -5.01, -4.74, -4.71, -4.94, -5.29, -5.86, -5.59, -5.93, -5.65, -5.65, -4.74, -3.84, -3.47, -3.0, -2.96, -2.26, -1.76, -0.66, 0.0, 0.73, 0.73, 0.0, 0.0, 0.0, 1.26, 1.2, 0.95, 0.71, 0.71, 0.0, 0.0, 0.0, 0.0, 0.0, 0.0, 0.95, 0.8, 0.57, 0.71, 0.0, 0.76, 1.03, 1.1, 3.35, 4.36, 0.0, 1.7, 6.51, 7.56, 6.98, 8.05, 9.36, 10.25, 10.79, 10.04, 8.46, 6.9, 5.4, 1.6, -0.89, -0.0, 0.6, 0.89, 1.34, 0.89, -0.0, -1.26, -1.9, -1.58, -2.17, -2.68, -1.7, -1.9, -2.53, -1.9, 0.0, 0.63, -0.89, -3.97, -4.88, -6.71, -7.47, -5.69, -2.0, -0.0, -6.28, -6.28, -6.03, -6.03, -6.03, -6.03, -5.86, -5.86, -6.15, -6.15, -5.93, -5.59, -5.01, -4.74, -4.74, -4.74, -5.01, -5.35, -5.59, -5.65, -5.98, -5.69, -5.69, -5.38, -4.73, -4.08, -3.4, -2.89, -2.33, -1.67, -1.12, 0.0, 0.0, 0.0, 0.59, 0.61, 0.54, 1.24, 1.26, 0.57, 0.0, 0.0, 0.0, -1.13, -1.26, -1.79, -0.89, -0.89, -0.89, -0.63, -0.95, -1.49, -2.2, -1.49, -0.71, 0.0, 0.0, 1.04, 0.0, 2.24, 5.82, 7.6, 7.6, 7.6, 7.15, 7.45, 7.92, 7.27, 7.68, 8.09, 9.28, 7.01, 0.0, -1.2, -0.0, 0.63, 1.26, 0.89, -0.0, -0.57, -1.24, -1.86, -2.68, -3.58, -2.68, -2.5, -1.88, -0.54, 0.0, 0.0, -0.89, -2.6, -5.31, -5.81, -4.73, -2.63, -0.45, -0.0, -6.28, -6.28, -6.03, -6.03, -5.86, -5.86, -5.86, -5.86, -5.93, -5.59, -5.35, -5.01, -4.74, -4.74, -4.74, -4.45, -4.75, -5.06, -5.37, -5.08, -5.69, -5.71, -5.71, -5.1, -5.36, -4.69, -4.24, -3.52, -2.83, -2.28, -1.73, -1.75, -1.0, 0.0, 0.0, 0.96, 1.08, 1.2, 1.27, 0.54, 0.0, 0.0, -1.27, -1.2, -1.26, -1.79, -1.79, -1.34, -1.79, -0.89, -1.6, -1.74, -1.74, -0.8, 0.0, 0.0, -2.12, -3.8, -0.71, 2.6, 4.0, 5.7, 5.81, 4.92, 4.47, 2.24, 2.84, 2.84, 5.24, 6.64, 7.01, 5.42, 0.76, -1.24, -0.0, 1.26, 1.84, 1.2, 0.0, 0.0, -0.63, -1.6, -2.24, -3.13, -3.98, -3.58, -2.4, -0.6, 0.0, -0.6, -1.2, -2.24, -3.51, -3.13, -2.24, -0.45, -0.89, -0.89, -6.28, -6.28, -6.28, -5.86, -5.86, -5.86, -5.86, -5.86, -5.65, -5.01, -4.74, -4.74, -4.74, -4.45, -4.45, -4.75, -4.75, -5.06, -5.08, -5.08, -5.1, -5.38, -5.1, -5.09, -4.69, -4.66, -3.97, -4.16, -3.45, -2.93, -2.93, -2.39, -1.75, 0.0, 0.0, 0.61, 1.16, 1.33, 1.05, 0.0, 0.0, 0.0, 0.0, 0.0, 0.0, 0.0, 0.0, 0.0, 0.0, -1.58, -1.2, -0.71, 0.0, 0.0, 0.0, -0.63, -2.8, -5.37, 0.0, 2.8, 2.68, 3.39, 3.39, 2.8, 0.0, 0.0, 0.0, 2.24, 5.51, 5.2, 2.25, -1.46, -1.58, 0.0, -0.0, 2.4, 4.43, 4.56, 1.49, 0.65, 0.71, 0.0, -1.34, -2.24, -2.68, -2.6, -2.8, -1.26, -0.8, -1.34, -1.7, -1.79, -1.34, -1.2, -0.63, -1.34, -1.79, -1.79, -6.28, -6.28, -6.28, -5.86, -5.86, -5.86, -5.49, -5.29, -4.71, -4.43, -4.74, -4.45, -4.45, -4.75, -4.75, -4.75, -4.75, -4.75, -4.75, -4.73, -4.73, -4.71, -4.45, -4.44, -3.97, -4.16, -4.12, -4.12, -3.42, -3.42, -2.77, -2.77, -2.42, -2.06, -0.59, 0.0, 0.0, 0.0, 0.0, 0.0, -1.14, -0.53, 0.0, -0.6, -1.2, -1.2, 0.0, 0.0, 0.0, 0.0, 0.0, 0.0, 1.2, 0.0, 0.0, -1.4, -2.2, -1.19, 2.0, 4.8, 4.34, 3.13, 2.24, 1.79, 0.0, 0.0, -0.0, -0.0, 0.8, 0.0, -3.34, -5.73, -2.07, -0.0, -0.0, 3.07, 7.03, 7.97, 6.42, 4.71, 4.46, 3.11, 0.0, -1.26, -1.7, -1.6, -1.86, -0.57, -0.95, -1.2, -1.24, -0.54, 0.0, -0.65, -0.61, -1.0, -1.7, -1.7, -6.28, -6.28, -6.28, -6.28, -5.75, -5.58, -5.21, -4.71, -4.43, -4.74, -4.45, -4.75, -4.75, -4.75, -4.75, -4.75, -4.47, -4.75, -4.47, -4.73, -4.71, -4.45, -4.45, -4.0, -3.49, -3.45, -3.94, -3.61, -3.42, -3.42, -2.77, -2.93, -2.8, -2.3, -1.69, -0.72, -0.73, -1.03, -0.96, -1.05, -0.98, -0.76, -1.49, -1.24, -1.4, -1.2, 0.0, 0.0, 0.0, 0.0, 1.13, 1.13, 1.6, 1.13, 0.0, 0.0, 0.0, 1.08, 2.95, 3.79, 3.48, 2.23, 1.2, 0.0, 0.0, 0.0, -0.45, -2.24, -7.4, -7.88, -6.5, -2.82, -0.0, -0.0, 0.8, 3.07, 5.09, 6.14, 6.45, 6.2, 5.41, 4.5, 2.28, -2.21, -1.61, -0.54, 0.0, 0.0, 0.0, 0.0, 0.0, 0.61, 0.0, 0.0, -0.66, -0.59, -0.65, -0.65, -6.28, -6.28, -6.28, -5.75, -5.21, -4.84, -4.65, -4.71, -4.43, -4.74, -4.75, -4.75, -5.06, -4.75, -4.75, -3.72, -4.75, -4.47, -4.47, -4.05, -4.45, -4.69, -4.71, -4.03, -3.2, -3.17, -3.56, -2.99, -2.99, -2.83, -2.93, -2.93, -2.8, -2.8, -2.42, -2.3, -2.83, -3.01, -2.12, -1.98, -1.41, -1.49, -1.74, -2.48, -1.4, -1.2, 0.0, 0.0, 0.0, 0.0, 0.0, 1.13, 1.13, 1.27, 1.08, 1.19, 1.19, 1.19, 2.4, 2.4, 2.2, 2.48, 1.27, 0.0, 0.0, -1.0, -0.8, -4.09, -8.68, -8.68, -3.28, 2.31, 3.64, 2.07, 2.07, 1.33, 0.66, 0.74, 1.47, 3.02, 1.54, 0.75, -0.75, -2.11, -2.84, -1.84, -0.61, 0.59, 0.0, 0.0, 0.0, 0.0, 0.0, 0.0, 0.0, 0.0, 0.0, 0.0, -6.28, -6.28, -6.13, -5.37, -5.08, -4.65, -4.37, -4.71, -4.74, -4.75, -5.06, -5.06, -5.08, -4.75, -4.75, -4.47, -4.47, -4.47, -4.01, -3.64, -3.9, -4.71, -4.71, -4.03, -3.79, -3.11, -2.8, -3.37, -3.35, -2.83, -2.97, -2.97, -2.97, -2.97, -2.97, -2.97, -2.8, -2.8, -2.8, -2.3, -2.33, -1.69, -1.73, -1.65, -1.19, -0.99, -1.2, 0.0, 0.0, 0.0, 0.0, 0.0, 0.0, 1.27, 0.65, 0.61, 1.99, 1.4, 1.2, 2.2, 2.2, 2.0, 1.27, 0.0, 0.0, -0.8, -1.6, -2.73, -4.0, -1.52, 1.51, 5.56, 5.32, 3.04, 1.57, 0.0, -2.28, -3.69, -1.52, 0.0, 0.0, 0.0, 0.0, -0.76, -1.84, -1.61, 0.0, 1.8, 1.13, 0.65, 0.0, -0.59, -0.72, 0.0, 0.0, 0.0, 0.0, 0.0, -6.28, -6.28, -5.75, -5.47, -5.08, -4.65, -4.71, -4.74, -4.74, -5.06, -5.06, -5.08, -4.75, -4.75, -4.75, -4.75, -4.75, -4.75, -4.73, -3.9, -3.11, -4.08, -4.45, -4.69, -4.0, -4.03, -3.56, -3.35, -3.52, -3.52, -3.32, -2.83, -2.83, -2.83, -2.83, -2.83, -2.97, -2.8, -2.93, -2.28, -2.28, -1.75, -1.78, -1.69, -1.73, -1.05, -1.27, -1.13, -1.27, 0.0, 0.0, 0.0, 0.0, 0.0, 1.08, 0.61, 1.33, 1.84, 2.6, 2.2, 2.2, 1.19, 0.0, 0.0, 0.0, -0.8, -0.57, 0.0, 0.79, 2.31, 4.55, 6.42, 4.88, 0.0, -3.14, -3.73, -6.95, -7.06, -6.32, -4.5, -2.28, -0.76, 0.0, 0.67, 0.0, 0.0, 0.61, 1.8, 2.0, 1.19, 0.0, -1.41, -0.72, -0.63, 0.0, 0.0, 0.0, 0.0, -6.28, -5.75, -5.6, -5.47, -4.84, -5.01, -4.71, -4.74, -5.06, -5.06, -5.08, -4.75, -4.75, -4.75, -4.75, -4.75, -4.47, -4.73, -5.1, -4.71, -4.05, -4.05, -4.03, -4.0, -4.2, -3.97, -3.49, -3.32, -3.52, -3.52, -3.52, -3.52, -3.01, -3.01, -2.83, -2.83, -2.83, -2.97, -2.8, -2.28, -2.28, -2.3, -1.75, -1.78, -1.69, -1.73, -1.14, -1.08, -1.27, -1.27, 0.0, 0.0, 0.0, 0.0, 0.0, 1.19, 2.15, 3.07, 2.32, 1.19, 0.65, 0.61, 0.0, 0.0, 0.0, 0.0, 0.0, 0.8, 3.22, 4.96, 6.98, 10.19, 7.8, 0.0, -3.83, -4.12, -5.95, -8.67, -9.86, -9.21, -6.77, -3.66, -0.78, 0.75, 1.52, 1.49, 0.63, 0.63, 0.0, 0.69, 0.0, -0.57, -0.63, 0.0, 0.0, 0.0, -0.66, -0.66, -6.28, -6.28, -5.75, -5.21, -5.21, -4.71, -5.05, -4.74, -4.75, -4.75, -4.47, -4.75, -4.75, -4.75, -4.47, -4.47, -4.73, -4.73, -4.71, -4.45, -4.03, -4.03, -4.03, -4.0, -4.2, -3.97, -3.97, -3.49, -3.32, -3.32, -3.52, -3.52, -3.52, -3.52, -3.52, -3.01, -3.01, -2.83, -2.83, -2.83, -2.3, -2.3, -1.67, -1.78, -1.69, -1.71, -1.1, -1.05, -1.08, -1.08, -1.27, 0.0, 0.0, 0.0, 0.0, 0.0, 1.2, 2.07, 1.99, 0.61, 0.0, 0.0, 0.0, 0.0, 0.0, 0.57, 1.26, 1.2, 2.97, 4.22, 6.13, 6.7, 0.73, -1.08, -2.4, -1.6, -3.58, -7.01, -9.46, -11.06, -9.21, -6.31, -2.97, -1.54, 0.0, 0.74, 0.0, 0.0, 0.0, 0.73, 0.0, -0.61, -1.13, -0.59, -0.59, -1.27, -1.23, -1.23, -5.75, -5.75, -5.75, -5.21, -4.94, -4.94, -4.74, -4.74, -4.75, -4.75, -4.47, -4.75, -4.75, -4.47, -4.47, -4.73, -4.73, -4.46, -4.71, -4.45, -4.03, -4.24, -4.0, -4.0, -4.0, -4.2, -4.2, -3.97, -3.49, -3.32, -3.52, -3.52, -3.52, -3.52, -3.35, -3.35, -3.52, -3.01, -2.83, -2.83, -2.3, -2.19, -2.33, -1.69, -1.69, -1.71, -2.21, -1.03, -1.05, -1.19, -1.19, -1.08, -1.27, 0.0, 0.0, 0.0, 0.0, 0.76, 2.32, 0.88, 0.0, -0.65, -0.65, 0.0, 0.57, 0.8, 1.26, 3.13, 1.34, 2.24, 0.0, -1.12, 0.8, 1.33, 2.24, 0.0, -3.13, -5.81, -8.24, -9.4, -9.45, -7.59, -5.64, -4.37, -2.99, -1.49, -0.76, 0.0, 0.0, 2.9, 1.41, 0.0, -1.4, -2.84, -2.23, -2.48, -2.48, -2.48, -5.49, -5.49, -5.29, -5.29, -5.29, -5.29, -4.74, -4.45, -4.75, -4.75, -4.47, -4.75, -4.75, -4.47, -4.73, -4.73, -4.46, -4.71, -4.71, -4.45, -4.45, -4.24, -4.0, -4.0, -4.2, -4.2, -4.0, -4.0, -3.32, -3.52, -3.52, -3.52, -3.52, -3.52, -3.35, -3.35, -3.35, -3.35, -2.86, -2.86, -2.33, -2.33, -2.33, -2.21, -1.69, -2.37, -1.71, -1.73, -1.76, -1.76, -1.8, -1.14, -1.08, -1.27, -1.27, 0.0, 0.0, 0.0, 0.0, 1.23, 0.0, 0.0, 0.0, 0.0, 0.6, 0.6, 1.6, 1.79, 1.79, -2.41, -4.0, -3.14, 1.13, 4.58, 4.71, 2.31, -0.54, -2.68, -6.17, -6.98, -8.24, -8.25, -6.96, -5.37, -3.55, -2.2, -0.72, 0.0, 0.59, 3.48, 7.35, 4.22, 0.0, -3.2, -4.0, -3.14, -2.84, -2.84, -5.29, -5.29, -5.29, -5.29, -5.29, -5.01, -5.01, -4.75, -4.75, -4.47, -4.75, -4.75, -4.47, -4.47, -4.73, -4.73, -4.46, -4.71, -4.71, -4.71, -4.45, -4.03, -4.0, -4.0, -4.2, -4.2, -4.0, -4.0, -3.52, -3.52, -3.52, -3.52, -3.52, -3.52, -3.35, -3.35, -3.35, -3.35, -2.86, -2.86, -2.86, -2.21, -2.21, -2.37, -2.37, -2.37, -1.81, -1.81, -1.71, -2.23, -2.23, -1.76, -2.32, -1.3, -1.08, -1.27, -1.13, -1.13, -1.27, 0.0, 0.0, 0.0, 0.0, 0.0, 0.0, 0.63, 1.2, 1.7, 0.0, -2.47, -4.0, -2.28, 0.0, 3.83, 6.42, 7.8, 1.43, -3.6, -3.58, -4.47, -7.56, -8.24, -6.8, -5.69, -3.15, -2.11, -0.7, 0.0, 1.16, 3.45, 5.69, 7.8, 3.6, -1.9, -3.13, -3.07, -2.68, -2.68, -5.29, -5.29, -5.29, -5.29, -5.01, -5.01, -5.01, -5.06, -4.75, -4.47, -4.75, -4.75, -4.47, -4.73, -4.73, -4.46, -4.46, -4.71, -4.71, -4.71, -4.03, -4.03, -4.0, -4.0, -4.0, -4.0, -3.52, -3.52, -3.52, -3.52, -3.52, -3.52, -3.35, -3.35, -3.56, -3.56, -3.56, -2.89, -2.89, -2.89, -2.89, -2.89, -2.37, -2.37, -2.23, -2.23, -2.37, -2.37, -2.37, -2.37, -2.23, -2.23, -1.73, -1.8, -0.7, -0.65, -1.19, -1.41, -0.71, -0.54, 0.0, 0.0, 0.0, 0.0, 0.0, 0.63, 1.2, 0.8, 0.0, -0.84, -2.47, -2.39, -0.79, 0.79, 4.75, 6.97, 4.71, -1.84, -3.51, -4.02, -6.26, -8.46, -7.81, -6.42, -5.05, -3.43, -1.8, 0.0, 1.88, 3.07, 3.72, 4.61, 6.67, 1.6, -1.7, -3.13, -2.63, -2.63, -5.29, -5.29, -5.29, -5.01, -5.01, -5.35, -5.06, -5.06, -5.06, -4.75, -4.75, -4.75, -4.47, -4.73, -4.73, -4.46, -4.46, -4.71, -4.28, -4.28, -4.03, -4.03, -4.03, -4.0, -4.0, -3.52, -3.52, -3.52, -3.52, -3.52, -3.52, -3.52, -3.35, -3.35, -3.56, -3.37, -3.37, -2.89, -2.89, -2.89, -2.89, -2.89, -2.23, -2.23, -2.23, -2.23, -2.23, -2.23, -2.23, -2.23, -2.23, -1.71, -1.71, -2.4, -2.44, -1.49, -2.16, -1.3, -0.71, -0.54, -0.7, -0.78, 0.0, 0.0, 0.0, 1.26, 1.26, 0.57, 0.0, 0.0, 0.0, -1.56, -2.28, -1.58, -0.77, -0.79, 0.0, 0.0, -2.17, -3.13, -4.02, -8.87, -9.68, -7.81, -6.85, -5.02, -2.4, 0.57, 2.21, 2.84, 2.51, 3.55, 6.31, 5.45, 2.06, -1.24, -2.68, -2.68, -5.29, -5.29, -5.01, -5.35, -5.35, -5.35, -5.06, -5.06, -5.06, -4.47, -4.75, -4.47, -4.47, -4.73, -4.73, -4.46, -4.46, -4.05, -4.28, -4.03, -4.03, -4.03, -4.03, -4.0, -3.52, -3.35, -3.35, -3.35, -3.35, -3.52, -3.52, -3.52, -3.35, -3.35, -3.56, -3.37, -3.37, -3.37, -2.89, -2.89, -2.89, -2.73, -2.92, -2.35, -1.52, -1.73, -2.4, -2.4, -2.4, -2.23, -2.23, -2.23, -2.23, -2.23, -2.23, -2.26, -2.26, -2.16, -0.87, -1.2, -1.4, -1.52, -0.79, 0.0, 0.63, 1.49, 1.9, 0.65, 0.0, -0.74, -0.75, -0.77, -2.41, -4.83, -6.95, -7.69, -4.81, -1.52, -0.71, -2.12, -2.91, -7.26, -8.64, -7.87, -4.47, -3.13, -0.63, 1.24, 1.84, 2.07, 2.07, 3.11, 4.12, 6.4, 5.55, 2.89, -0.61, -0.61, -5.86, -5.86, -5.35, -5.35, -5.35, -5.06, -5.06, -5.06, -5.06, -4.75, -4.75, -4.47, -4.73, -4.73, -4.73, -4.46, -4.05, -4.05, -4.28, -4.03, -4.03, -4.03, -4.03, -4.03, -3.56, -3.56, -3.56, -3.56, -3.35, -3.35, -3.35, -3.35, -3.35, -3.35, -3.56, -3.37, -3.37, -3.37, -3.37, -2.89, -2.92, -2.92, -2.92, -2.92, -2.44, -2.35, -1.6, -2.29, -2.26, -2.26, -2.4, -2.4, -2.4, -2.4, -2.4, -2.4, -2.26, -2.29, -1.55, -1.4, -1.33, -1.6, -0.61, 0.0, 0.45, 0.63, 1.24, 1.14, 0.0, -2.51, -2.28, -0.77, -0.78, -3.69, -7.64, -8.46, -6.0, -2.95, -0.79, -0.59, -1.88, -4.55, -5.81, -5.99, -4.6, -1.0, 0.51, 2.04, 1.98, 2.04, 2.11, 2.8, 3.61, 5.38, 5.72, 5.64, 2.82, 2.82, -5.59, -5.59, -5.59, -5.59, -5.35, -5.06, -5.06, -5.06, -5.06, -5.08, -4.75, -4.75, -4.73, -4.73, -4.73, -4.46, -4.46, -4.05, -4.05, -4.03, -4.03, -4.03, -4.03, -4.03, -3.56, -3.56, -3.56, -3.56, -3.56, -3.35, -3.35, -3.35, -3.35, -3.56, -3.56, -3.37, -3.37, -3.37, -3.37, -3.6, -2.92, -2.92, -2.92, -2.73, -2.92, -2.35, -2.47, -2.32, -2.29, -2.96, -2.75, -2.92, -2.92, -2.4, -2.4, -2.4, -2.92, -2.92, -2.26, -2.2, -2.2, -1.49, -0.65, 0.0, 0.0, 0.0, 0.0, 0.0, 0.0, -2.21, -3.2, -1.52, 0.0, 0.0, -4.71, -6.88, -5.41, -2.31, -1.54, -1.5, -1.4, -1.27, -1.67, -1.14, 0.0, 1.78, 2.9, 3.46, 2.89, 2.75, 2.2, 2.8, 2.82, 3.39, 4.95, 5.02, 5.02, 5.02, -5.59, -5.59, -5.59, -5.59, -5.65, -5.37, -5.37, -5.37, -5.37, -5.08, -4.75, -4.75, -4.47, -4.73, -4.73, -4.46, -4.46, -4.46, -4.05, -4.05, -4.28, -4.03, -4.03, -4.03, -4.03, -3.56, -3.56, -3.56, -3.27, -3.6, -3.37, -3.56, -3.56, -3.56, -3.56, -3.37, -3.37, -3.37, -3.6, -3.4, -3.4, -2.92, -2.92, -2.89, -2.89, -2.73, -2.26, -2.29, -2.29, -2.44, -2.44, -2.75, -2.92, -2.92, -2.92, -2.92, -2.92, -2.73, -2.89, -2.89, -2.29, -1.33, -0.4, 0.0, 0.0, -0.63, -1.34, -2.2, -1.2, 0.0, -0.82, -0.76, 0.0, 1.06, -1.48, -4.56, -3.79, -1.6, -1.52, -2.1, -1.42, -0.71, 0.71, 2.8, 3.53, 3.96, 3.61, 3.47, 3.04, 2.83, 2.2, 2.11, 1.98, 2.63, 4.31, 4.31, 4.37, 4.37, -5.93, -5.93, -5.93, -5.93, -5.65, -5.65, -5.37, -5.37, -5.37, -5.08, -5.08, -5.08, -4.47, -4.73, -4.73, -4.73, -4.46, -4.46, -4.46, -4.05, -4.05, -4.28, -4.03, -4.03, -4.03, -4.03, -4.03, -4.03, -3.37, -3.27, -3.4, -3.37, -3.37, -3.56, -3.37, -3.37, -3.37, -3.6, -3.6, -3.4, -3.4, -3.4, -2.92, -2.89, -2.89, -2.89, -2.92, -2.92, -2.26, -2.26, -2.26, -2.75, -2.92, -2.92, -2.92, -2.92, -3.09, -2.89, -3.37, -3.56, -2.89, -1.2, -1.2, 0.0, 0.0, -0.45, -1.34, -1.86, -1.32, 0.0, 0.0, 0.0, -1.52, -1.53, 0.0, -0.73, -1.26, -1.24, -2.04, -2.17, -1.43, 0.0, 2.12, 3.91, 4.76, 4.07, 2.98, 2.31, 2.25, 2.23, 1.47, 1.41, 1.41, 0.65, 1.39, 2.97, 3.53, 3.53, -5.93, -5.93, -5.93, -5.65, -5.65, -5.65, -5.37, -5.37, -5.37, -5.08, -5.08, -5.08, -5.08, -4.73, -4.73, -4.73, -4.73, -4.46, -4.46, -4.46, -4.05, -4.28, -4.28, -4.03, -4.03, -4.03, -4.03, -4.03, -4.03, -3.37, -3.6, -3.6, -3.37, -3.37, -3.37, -3.37, -3.6, -3.6, -3.6, -3.4, -3.4, -3.4, -3.4, -3.09, -2.89, -2.89, -2.92, -2.92, -2.92, -2.4, -2.4, -2.92, -2.92, -2.92, -2.92, -2.92, -2.89, -2.89, -3.37, -2.89, -2.26, -2.4, -2.48, -1.13, -1.0, -1.58, -2.6, -3.22, -2.4, 0.0, 0.0, 0.0, -2.13, -3.23, -0.79, 1.54, 0.72, -0.7, -1.98, -2.82, -2.12, 0.0, 1.88, 2.51, 2.66, 1.72, 1.14, 1.18, 1.36, 1.4, 1.27, 0.7, 0.0, 0.0, 0.0, 1.44, 2.06, 2.06, -5.93, -5.93, -5.93, -5.65, -5.65, -5.65, -5.65, -5.37, -5.37, -5.08, -5.08, -5.08, -5.08, -4.81, -4.73, -4.73, -4.73, -4.73, -4.46, -4.46, -4.46, -4.46, -4.05, -4.28, -4.03, -4.03, -4.03, -4.03, -4.03, -4.03, -3.81, -4.05, -4.05, -3.6, -3.6, -3.6, -3.4, -3.4, -3.4, -3.4, -3.4, -3.4, -3.4, -2.92, -2.89, -2.89, -2.92, -2.92, -2.92, -2.92, -2.92, -2.92, -2.92, -2.92, -2.92, -2.92, -3.09, -2.89, -3.09, -2.92, -2.96, -2.12, -2.6, -2.4, -2.73, -2.48, -1.8, -2.3, -1.55, -0.78, 0.0, 0.0, 0.0, -1.58, 0.0, 2.31, 2.95, 1.56, -0.75, -3.27, -2.15, 0.63, 1.7, 1.0, 0.7, 0.0, 0.0, 0.0, 0.73, 0.61, 0.57, 0.0, 0.0, -0.72, -0.69, -0.69, 0.67, 0.67, -5.93, -5.93, -5.93, -5.65, -5.65, -5.65, -5.65, -5.37, -5.37, -5.08, -5.08, -5.08, -5.08, -5.08, -4.47, -4.47, -4.73, -4.73, -4.73, -4.46, -4.46, -4.46, -4.46, -4.05, -4.28, -4.03, -4.03, -4.03, -4.03, -4.03, -4.03, -3.81, -4.05, -4.05, -3.6, -3.4, -3.4, -3.4, -3.4, -3.4, -3.4, -3.4, -2.92, -2.92, -2.89, -2.89, -2.92, -2.92, -2.92, -2.92, -2.92, -2.92, -2.92, -2.92, -2.92, -2.92, -3.09, -2.92, -2.92, -2.92, -2.92, -2.96, -2.12, -1.8, -1.4, -2.48, -0.99, -0.79, -0.81, 0.0, 0.0, 0.77, 1.16, 0.8, 0.0, 0.0, 2.28, 3.2, 0.0, -2.1, -1.24, 0.45, 0.0, 0.0, -0.59, -0.67, -0.71, 0.0, 0.0, 0.0, 0.0, 0.0, 0.0, -0.76, -0.69, -0.65, 0.0, 0.0, -5.93, -5.93, -5.93, -5.65, -5.65, -5.65, -5.65, -5.65, -5.37, -5.08, -5.08, -5.08, -5.08, -5.08, -5.08, -4.47, -4.47, -4.73, -4.73, -4.73, -4.73, -4.46, -4.46, -4.05, -4.28, -4.28, -4.03, -4.03, -4.03, -4.03, -4.03, -3.81, -4.05, -4.05, -3.6, -3.4, -3.4, -3.4, -3.4, -3.4, -3.4, -3.4, -2.96, -2.35, -2.75, -2.92, -2.92, -2.92, -2.92, -2.92, -2.92, -2.92, -2.92, -3.09, -3.09, -3.09, -2.92, -2.92, -2.92, -2.92, -2.92, -2.96, -2.26, -1.6, -0.85, -1.41, -0.87, -0.88, -0.81, 0.0, 0.83, 1.58, 2.28, 2.32, 0.0, -1.66, -1.52, -0.79, -0.77, -0.69, 0.0, 0.0, -0.6, -1.61, -1.84, -1.76, -1.88, -1.23, -0.63, 0.0, 0.0, 0.0, 0.0, -0.76, -0.82, -1.45, -1.44, -0.71, -5.93, -5.93, -5.93, -5.93, -5.65, -5.65, -5.65, -5.65, -5.37, -5.37, -5.08, -5.08, -5.08, -5.08, -5.08, -4.75, -4.75, -4.47, -4.47, -4.73, -4.73, -4.73, -4.46, -4.46, -4.05, -4.05, -4.05, -4.05, -4.05, -4.05, -4.05, -4.05, -4.05, -3.6, -3.6, -3.6, -3.4, -3.4, -3.4, -3.4, -3.4, -3.4, -3.42, -2.29, -2.44, -2.92, -2.92, -2.92, -2.92, -2.92, -3.4, -3.4, -3.4, -3.6, -3.6, -3.4, -3.6, -3.6, -3.4, -3.4, -2.92, -2.96, -3.2, -0.76, -0.65, -1.19, -1.3, -0.81, 0.0, 0.0, 0.81, 1.18, 2.1, 2.43, 2.41, -1.52, -5.43, -5.6, -2.88, 0.0, 0.0, -0.57, -1.61, -2.53, -2.79, -2.66, -2.48, -1.8, -1.13, -0.59, -0.66, -0.66, -0.66, -0.7, -1.47, -1.36, -1.4, -1.44, -6.15, -6.15, -5.93, -5.93, -5.65, -5.65, -5.65, -5.65, -5.37, -5.37, -5.37, -5.08, -5.08, -5.08, -5.08, -5.08, -4.75, -4.75, -4.47, -4.47, -4.47, -4.73, -4.73, -4.46, -4.05, -4.05, -4.05, -4.05, -4.05, -4.05, -4.05, -4.05, -4.05, -3.6, -3.6, -3.6, -3.6, -3.4, -3.4, -3.4, -3.64, -3.64, -3.4, -3.42, -2.35, -2.96, -2.75, -2.75, -3.4, -3.4, -3.4, -3.4, -3.4, -3.4, -3.4, -3.4, -3.4, -3.4, -3.4, -3.4, -3.4, -3.42, -2.8, -2.32, -1.3, -1.3, -0.79, -0.79, 0.0, 0.0, 0.81, 0.82, 0.0, 2.24, 5.5, 3.11, -2.4, -5.38, -3.09, 0.0, 0.0, -1.9, -2.53, -2.84, -3.16, -3.48, -2.51, -1.88, -1.16, -0.7, -0.59, -0.66, -0.66, -1.47, -1.47, -1.47, -1.41, -1.4, -6.15, -6.15, -5.93, -5.93, -5.93, -5.93, -5.65, -5.65, -5.65, -5.65, -5.37, -5.37, -5.08, -5.08, -5.08, -5.08, -4.75, -4.75, -4.47, -4.47, -4.47, -4.47, -4.73, -4.73, -4.05, -4.05, -4.05, -4.05, -4.05, -4.05, -4.05, -4.05, -4.05, -4.05, -4.05, -3.6, -3.6, -3.4, -3.4, -3.4, -3.64, -3.4, -3.4, -3.4, -3.64, -3.2, -2.96, -3.42, -3.64, -3.4, -3.4, -3.4, -3.4, -3.4, -3.4, -3.4, -3.4, -3.4, -3.4, -3.4, -3.64, -3.42, -3.2, -2.32, -2.4, -1.19, -0.71, -1.08, 0.0, 0.0, 0.0, 0.0, 0.0, 1.09, 4.48, 6.56, 5.51, 0.79, -1.58, -0.6, -1.2, -2.4, -2.68, -3.45, -3.83, -2.79, -2.5, -1.9, -1.88, -1.16, -1.13, -1.27, -1.27, -1.47, -1.47, -1.55, -1.41, -1.41, -6.15, -6.15, -6.15, -5.93, -5.93, -5.93, -5.93, -5.65, -5.65, -5.65, -5.65, -5.37, -5.37, -5.08, -5.08, -5.08, -4.75, -4.75, -4.75, -4.47, -4.47, -4.47, -4.47, -4.08, -4.08, -3.83, -4.05, -4.05, -4.05, -4.05, -4.05, -4.05, -4.05, -4.05, -4.05, -4.05, -3.4, -3.4, -3.4, -3.4, -3.4, -3.4, -3.4, -3.6, -3.6, -3.4, -2.96, -3.42, -3.42, -3.64, -3.64, -3.64, -3.64, -3.4, -3.4, -3.4, -3.4, -3.64, -3.64, -3.64, -3.42, -3.42, -2.8, -2.32, -2.2, -1.19, -1.19, -1.08, 0.0, 0.0, 0.0, 0.0, 0.0, 0.8, 2.39, 3.47, 6.97, 7.84, 3.21, 0.0, -1.6, -2.68, -3.07, -3.97, -3.97, -3.32, -2.91, -2.15, -1.88, -1.84, -1.27, -1.41, -1.35, -2.11, -1.55, -0.73, -0.73, -0.73, -6.15, -6.15, -6.15, -5.93, -5.93, -5.93, -5.93, -5.93, -5.93, -5.65, -5.37, -5.37, -5.37, -5.37, -5.37, -5.08, -4.75, -4.75, -4.75, -4.47, -4.47, -4.47, -4.08, -4.08, -4.08, -4.08, -3.83, -4.05, -4.05, -4.05, -4.05, -4.05, -4.05, -4.05, -4.05, -4.05, -3.4, -3.4, -3.4, -3.4, -3.4, -3.83, -3.4, -3.4, -3.4, -3.4, -3.4, -3.42, -3.42, -3.64, -3.64, -3.64, -3.64, -3.64, -3.64, -3.64, -3.64, -3.64, -3.64, -3.42, -3.42, -3.42, -3.45, -3.45, -2.4, -1.3, -1.19, -1.08, 0.0, 0.0, 0.0, 0.0, 0.0, 0.0, 0.81, 1.62, 3.73, 7.69, 9.31, 5.48, 0.0, -3.13, -4.02, -4.02, -4.02, -3.09, -3.07, -2.5, -2.53, -2.07, -2.0, -2.66, -2.88, -2.29, -1.6, -1.6, -1.6, -1.6, -6.15, -6.15, -6.15, -5.93, -5.93, -5.59, -5.59, -5.59, -5.59, -5.35, -5.06, -5.06, -5.06, -5.06, -5.06, -5.08, -4.75, -4.75, -4.75, -4.75, -4.08, -4.08, -4.08, -4.08, -4.08, -4.08, -3.83, -4.05, -4.05, -4.05, -4.05, -4.05, -4.05, -4.05, -4.05, -3.83, -3.4, -3.4, -3.4, -3.83, -3.83, -4.05, -3.83, -3.4, -3.4, -3.4, -3.4, -3.4, -3.64, -3.64, -3.64, -3.84, -3.84, -3.42, -3.42, -3.42, -3.42, -3.42, -3.42, -3.42, -3.68, -3.45, -3.45, -2.82, -2.32, -2.4, -1.19, -0.54, 0.0, 0.0, 0.0, 0.0, 0.0, 0.0, 0.0, 1.52, 2.39, 4.81, 7.8, 10.46, 7.6, 0.0, -4.47, -4.02, -3.58, -3.13, -3.07, -3.32, -3.14, -2.51, -4.22, -2.66, -2.88, -2.29, -2.29, -2.29, -2.29, -2.29, -6.15, -6.15, -5.93, -5.59, -5.59, -5.59, -5.59, -5.59, -5.59, -5.35, -5.35, -5.06, -5.06, -5.06, -5.06, -4.75, -4.47, -4.47, -4.47, -4.47, -4.36, -4.08, -4.08, -4.08, -4.08, -4.08, -4.08, -4.05, -4.05, -4.05, -4.05, -4.05, -4.05, -4.05, -4.05, -3.83, -3.83, -3.83, -3.83, -3.83, -4.05, -4.05, -3.83, -3.83, -3.4, -3.64, -3.64, -3.64, -3.64, -4.08, -4.08, -3.84, -3.84, -3.68, -3.42, -3.42, -3.42, -3.42, -3.42, -3.68, -3.45, -3.45, -3.45, -3.22, -2.82, -2.16, -1.19, -0.54, -0.54, 0.0, -0.81, 0.0, 0.0, 0.0, 0.0, 0.79, 1.67, 2.31, 4.75, 7.82, 11.16, 6.89, -1.88, -4.02, -4.47, -4.02, -4.41, -3.6, -4.09, -5.69, -3.76, -1.4, -1.2, -1.2, -1.4, -0.61, -0.61, -0.61, -5.93, -5.93, -5.59, -5.59, -5.59, -5.59, -5.59, -5.59, -5.35, -5.35, -5.35, -5.06, -5.06, -5.06, -4.75, -4.75, -4.75, -4.47, -4.47, -4.1, -4.1, -3.84, -4.08, -4.08, -4.08, -4.08, -4.08, -4.05, -4.05, -4.05, -4.05, -4.05, -4.05, -4.05, -3.83, -3.83, -3.83, -3.83, -4.05, -4.05, -4.05, -3.83, -4.08, -4.08, -4.08, -4.08, -4.08, -4.08, -4.08, -4.08, -4.08, -3.84, -4.1, -4.1, -3.68, -3.68, -3.68, -3.68, -3.68, -3.45, -3.45, -3.45, -3.47, -3.47, -3.04, -2.16, -2.2, -1.08, -1.19, -0.65, -0.54, 0.0, 0.0, 0.0, 0.0, 0.83, 1.65, 2.35, 3.78, 4.6, 8.51, 11.36, 3.82, -3.07, -5.36, -4.87, -4.3, -4.93, -5.43, -2.5, -0.8, 0.0, 0.0, 0.0, 0.0, 0.0, 0.0, 0.0, -5.59, -5.59, -5.59, -5.59, -5.59, -5.59, -5.35, -5.35, -5.35, -5.35, -5.35, -5.35, -5.06, -4.75, -4.75, -4.75, -4.75, -4.47, -4.47, -4.1, -4.1, -4.1, -3.84, -4.08, -4.08, -4.08, -4.08, -4.32, -4.05, -4.05, -4.05, -4.05, -4.05, -4.08, -4.08, -3.83, -3.83, -4.05, -4.05, -4.05, -4.05, -4.08, -4.08, -4.08, -4.08, -4.08, -4.08, -4.08, -4.08, -4.08, -4.08, -3.84, -4.1, -4.1, -4.1, -3.68, -3.68, -3.45, -3.45, -3.45, -3.45, -3.72, -3.47, -3.47, -3.22, -2.99, -2.4, -2.2, -1.08, 0.0, 0.0, 0.0, 0.0, 0.0, 0.0, 0.78, 0.79, 1.58, 3.06, 3.88, 5.4, 9.42, 13.27, 2.12, -5.81, -5.81, -5.2, -5.44, -3.72, -1.9, 0.0, 0.6, 1.26, 0.57, 0.71, 1.24, 1.24, 1.24, -5.86, -5.86, -5.86, -5.59, -5.59, -5.35, -5.01, -5.01, -5.01, -5.01, -5.01, -5.01, -4.74, -4.45, -4.75, -4.75, -4.75, -4.75, -4.47, -4.1, -4.1, -4.1, -4.1, -4.08, -4.08, -4.08, -4.08, -4.08, -4.08, -4.05, -4.05, -4.05, -4.08, -4.08, -4.08, -4.08, -4.05, -4.05, -4.05, -4.05, -4.08, -4.08, -4.08, -4.08, -4.08, -4.08, -4.08, -4.08, -4.08, -4.08, -3.84, -4.1, -4.1, -4.1, -4.1, -3.85, -3.45, -3.45, -3.45, -3.45, -3.72, -3.47, -3.47, -3.47, -3.49, -1.6, -1.2, -0.71, 0.0, 0.0, 0.0, 0.0, 0.0, 0.0, 0.0, 0.78, 0.83, 1.65, 3.15, 3.88, 4.6, 6.9, 13.15, 11.97, -0.7, -5.77, -5.2, -4.73, -3.45, -1.88, 0.0, 0.0, 0.57, 0.57, 0.71, 0.54, 0.54, 0.54, -5.86, -5.86, -5.86, -5.86, -5.29, -5.29, -5.29, -5.29, -5.29, -5.01, -5.01, -5.01, -4.74, -4.74, -4.45, -4.75, -4.75, -4.75, -4.47, -4.1, -4.1, -4.1, -4.1, -4.08, -4.08, -4.08, -4.08, -4.08, -4.08, -4.32, -4.32, -4.08, -4.08, -4.08, -4.08, -4.08, -4.05, -4.05, -4.05, -4.08, -4.08, -4.08, -4.08, -4.08, -4.47, -4.47, -4.47, -4.36, -4.1, -4.1, -4.1, -4.1, -4.1, -4.1, -3.85, -3.85, -3.85, -3.85, -3.45, -3.72, -3.47, -3.47, -3.47, -3.47, -3.49, -2.41, -1.2, -0.65, -0.54, 0.0, 0.0, 0.0, -0.54, -0.81, 0.0, 0.0, 0.83, 1.55, 2.4, 3.15, 3.06, 4.71, 7.13, 10.8, 3.9, -3.97, -3.58, -3.58, -3.13, -2.4, -0.54, 0.0, 0.0, 0.0, 0.0, 0.57, 0.57, 0.57, -5.86, -5.86, -5.86, -5.49, -5.29, -5.29, -5.29, -5.29, -5.29, -5.29, -5.01, -4.74, -4.74, -4.74, -4.45, -4.45, -4.45, -4.75, -4.75, -4.47, -4.1, -4.1, -4.1, -4.08, -4.08, -4.08, -4.08, -4.08, -4.08, -4.08, -4.08, -4.08, -4.08, -4.08, -4.08, -4.08, -4.05, -4.05, -4.08, -4.08, -4.08, -4.08, -4.08, -4.47, -4.47, -4.47, -4.36, -4.1, -4.1, -4.1, -4.1, -4.1, -4.1, -3.85, -3.85, -3.85, -3.85, -3.85, -4.12, -4.12, -3.84, -3.84, -3.47, -3.49, -3.49, -3.49, -2.21, -1.49, -1.49, -1.49, -0.79, -0.88, -0.65, -1.24, -0.88, 0.0, 0.78, 1.63, 1.55, 1.58, 2.44, 2.44, 2.31, 3.16, -1.2, -1.4, -1.58, -2.0, -2.4, -1.34, 0.0, 0.0, 0.0, 0.0, 0.0, 0.0, 0.0, 0.0, -5.86, -5.86, -5.49, -5.29, -5.29, -4.94, -4.94, -4.94, -4.71, -4.71, -4.74, -4.74, -4.74, -4.74, -4.45, -4.45, -4.45, -4.45, -4.75, -4.47, -4.47, -4.1, -4.1, -4.36, -4.08, -4.08, -4.08, -4.08, -4.47, -4.08, -4.08, -4.08, -4.08, -4.08, -4.08, -4.08, -4.32, -4.08, -4.08, -4.08, -4.08, -4.08, -4.08, -4.47, -4.47, -4.1, -4.1, -4.1, -4.1, -4.1, -4.1, -4.1, -4.1, -4.12, -4.12, -4.12, -4.12, -4.12, -4.12, -4.12, -4.12, -3.84, -4.12, -3.49, -3.49, -3.49, -2.21, -1.9, -1.9, -1.24, -2.68, -1.55, -1.83, -0.71, -0.85, 0.0, 0.82, 0.83, 0.79, 0.79, 1.49, 0.85, 0.0, 0.79, 0.0, -0.0, -0.0, -0.0, -0.0, 0.63, 0.8, 1.26, 0.6, 0.0, 0.0, 0.0, 0.0, 0.0, -5.49, -5.49, -5.49, -5.29, -4.94, -4.94, -4.71, -4.71, -4.71, -4.71, -4.43, -4.74, -4.74, -4.74, -4.74, -4.45, -4.45, -4.45, -4.75, -4.75, -4.47, -4.47, -4.47, -4.75, -4.75, -4.75, -4.47, -4.47, -4.47, -4.08, -4.08, -4.08, -4.08, -4.08, -4.08, -4.08, -4.08, -4.08, -4.08, -4.08, -4.08, -4.08, -4.08, -4.08, -4.36, -4.1, -4.1, -4.1, -4.1, -4.47, -4.47, -4.1, -4.12, -4.12, -4.12, -4.12, -4.12, -4.12, -4.12, -4.12, -4.12, -4.12, -3.83, -3.83, -3.83, -4.11, -4.07, -3.43, -2.4, -2.4, -1.9, -1.49, -0.65, 0.0, 0.0, 0.0, 0.81, 0.83, 0.84, 0.79, 0.79, 0.77, 0.78, 3.19, 0.0, -0.0, 1.24, 2.4, 2.91, 2.63, 2.6, 2.15, 1.9, 1.24, 0.71, 0.0, 0.0, 0.0, -5.75, -5.75, -5.58, -5.21, -5.21, -5.01, -5.01, -4.71, -4.71, -4.71, -4.71, -4.43, -4.74, -4.74, -4.74, -4.74, -4.45, -4.45, -4.45, -4.75, -4.47, -4.47, -4.47, -4.47, -4.75, -4.75, -4.47, -4.47, -4.47, -4.08, -4.08, -4.08, -4.08, -4.08, -4.08, -4.08, -4.08, -4.08, -4.08, -4.08, -4.08, -4.08, -4.08, -4.36, -4.1, -4.1, -4.1, -4.47, -4.47, -4.75, -4.75, -4.45, -4.12, -4.12, -4.45, -4.45, -4.45, -4.45, -4.45, -4.12, -4.12, -4.12, -4.12, -4.12, -4.43, -4.71, -4.07, -3.88, -2.4, -2.4, -2.23, -1.49, -0.71, 0.0, 0.0, 0.0, 0.81, 0.78, 1.65, 1.55, 1.63, 1.52, 1.62, 4.75, 2.35, -0.45, 1.2, 3.07, 3.39, 3.53, 3.07, 3.07, 2.86, 1.88, 1.88, 1.16, 1.16, 1.16, -5.37, -5.37, -5.21, -5.21, -5.21, -4.65, -4.65, -4.65, -4.71, -4.71, -4.71, -4.71, -4.43, -4.74, -4.74, -4.74, -4.45, -4.45, -4.45, -4.75, -4.75, -4.47, -4.47, -4.47, -4.47, -4.75, -4.75, -4.75, -4.08, -4.36, -4.36, -4.36, -4.08, -4.08, -4.08, -4.08, -4.08, -4.08, -4.08, -4.36, -4.36, -4.36, -4.36, -4.1, -4.1, -4.47, -4.47, -4.47, -4.75, -4.75, -4.45, -4.45, -4.45, -4.45, -4.45, -4.45, -4.45, -4.45, -4.45, -4.45, -4.74, -4.43, -4.43, -4.74, -4.74, -4.71, -4.07, -4.0, -3.88, -2.4, -2.23, -1.24, -1.6, -0.87, 0.0, -0.87, -0.87, 0.0, 0.83, 1.55, 0.83, 0.82, 0.77, 3.83, 4.8, 0.0, 0.53, 3.45, 3.82, 3.58, 3.53, 3.6, 3.49, 2.15, 2.07, 2.07, 2.07, 2.07, -5.21, -5.21, -5.21, -5.21, -4.84, -4.65, -4.65, -4.65, -4.37, -4.71, -4.71, -4.71, -4.43, -4.43, -4.43, -4.74, -4.74, -4.45, -4.45, -4.45, -4.75, -4.75, -4.47, -4.47, -4.47, -4.47, -4.47, -4.75, -4.75, -4.1, -4.1, -4.1, -4.1, -4.08, -4.08, -4.08, -4.08, -4.1, -4.36, -4.75, -4.47, -4.47, -4.47, -4.47, -4.47, -4.47, -4.47, -4.75, -4.75, -4.45, -4.45, -4.45, -4.75, -4.75, -4.75, -4.75, -4.75, -4.75, -4.45, -4.74, -4.74, -4.74, -5.01, -5.01, -4.74, -4.37, -4.07, -4.55, -4.55, -2.8, -2.23, -2.53, -2.53, -1.6, -1.8, -1.66, -2.68, -0.88, 0.0, 0.0, 0.0, 0.0, 0.0, 0.0, 3.28, 0.0, -0.0, 2.21, 3.53, 3.58, 3.53, 3.45, 3.15, 2.3, 1.33, 1.49, 1.49, 1.49, -5.47, -5.47, -5.47, -4.84, -4.65, -4.65, -4.65, -4.65, -4.65, -4.37, -4.71, -4.71, -4.71, -4.43, -4.43, -4.43, -4.43, -4.74, -4.45, -4.45, -4.45, -4.75, -4.75, -4.47, -4.47, -4.47, -4.47, -4.47, -4.47, -4.47, -4.47, -4.1, -4.47, -4.75, -4.75, -4.1, -4.1, -4.1, -4.47, -4.47, -4.47, -4.47, -4.47, -4.47, -4.47, -4.47, -4.75, -4.75, -4.75, -4.45, -4.45, -4.75, -4.75, -4.75, -4.75, -4.75, -4.75, -4.74, -4.74, -5.01, -5.01, -5.35, -5.35, -5.01, -4.71, -4.37, -4.65, -4.65, -5.08, -2.8, -2.4, -3.58, -3.22, -2.53, -2.0, -1.66, -1.66, -1.8, -1.55, 0.0, -0.79, -0.74, -0.79, -0.78, 0.78, 2.33, 0.0, 1.2, 2.4, 2.68, 2.91, 2.53, 2.0, 1.66, 1.4, 1.4, 1.4, 1.4, -5.47, -5.47, -5.08, -5.08, -4.65, -4.65, -4.65, -4.65, -4.65, -4.37, -4.71, -4.71, -4.71, -4.71, -4.71, -4.43, -4.43, -4.43, -4.45, -4.45, -4.45, -4.45, -4.45, -4.75, -4.47, -4.47, -4.47, -4.47, -4.47, -4.47, -4.47, -4.47, -4.47, -4.47, -4.47, -4.47, -4.47, -4.47, -4.47, -4.47, -4.47, -4.47, -4.47, -4.47, -4.47, -4.75, -4.75, -4.75, -4.75, -4.75, -4.75, -5.06, -5.06, -5.06, -5.06, -5.06, -5.06, -5.01, -5.35, -5.35, -5.35, -5.35, -5.35, -5.01, -4.71, -4.71, -5.01, -5.21, -5.47, -5.47, -5.31, -3.83, -3.22, -2.53, -1.8, -0.79, 0.0, 0.0, 0.0, 0.0, 0.0, -0.81, -0.79, -0.8, 0.0, 3.16, 2.33, 0.54, 0.6, 1.6, 2.12, 1.61, 1.33, 1.33, 1.4, 1.2, 1.2, 1.2, -5.08, -5.08, -5.08, -5.08, -4.84, -4.65, -4.65, -4.65, -4.65, -4.65, -4.37, -4.37, -4.37, -4.71, -4.71, -4.43, -4.43, -4.43, -4.74, -4.45, -4.45, -4.45, -4.45, -4.45, -4.75, -4.47, -4.47, -4.47, -4.47, -4.47, -4.47, -4.47, -4.47, -4.47, -4.47, -4.47, -4.47, -4.47, -4.47, -4.47, -4.47, -4.47, -4.47, -4.75, -4.75, -4.75, -4.75, -4.75, -4.75, -4.75, -5.06, -5.06, -5.06, -5.06, -5.06, -5.35, -5.35, -5.35, -5.35, -5.35, -5.35, -5.35, -5.01, -5.05, -4.94, -4.94, -5.21, -5.21, -5.75, -6.0, -5.6, -3.83, -3.22, -2.84, -1.74, -0.87, 0.0, 0.0, 0.0, 0.0, 0.0, 0.0, 0.0, 0.0, 0.77, 3.9, 5.51, 3.16, 0.0, -0.0, 0.89, 1.24, 0.61, 0.61, 0.65, 1.2, 1.2, 1.2, -5.08, -5.08, -5.08, -5.08, -4.84, -4.65, -4.65, -4.65, -4.65, -4.65, -4.37, -4.37, -4.37, -4.37, -4.71, -4.71, -4.43, -4.43, -4.74, -4.74, -4.45, -4.45, -4.45, -4.45, -4.75, -4.75, -4.75, -4.75, -4.75, -4.75, -4.75, -4.47, -4.47, -4.75, -4.75, -4.75, -4.75, -4.47, -4.47, -4.47, -4.47, -4.75, -4.75, -4.75, -4.75, -4.75, -4.75, -4.75, -5.06, -5.06, -5.06, -5.06, -5.06, -5.35, -5.35, -5.35, -5.35, -5.35, -5.35, -5.35, -5.35, -5.01, -5.01, -5.29, -5.29, -5.58, -5.75, -5.75, -5.75, -5.75, -6.0, -4.55, -3.72, -3.16, -1.74, -0.87, -0.87, 0.0, 0.0, 0.0, 0.0, 0.0, 0.0, 0.0, 0.8, 3.73, 6.31, 6.24, 1.58, 0.0, 0.0, 0.6, 0.0, 0.0, 0.0, 0.0, 0.0, 0.0, -5.08, -5.08, -5.08, -5.08, -4.84, -4.65, -4.65, -4.65, -4.65, -4.65, -4.37, -4.37, -4.37, -4.37, -4.71, -4.71, -4.43, -4.43, -4.74, -4.74, -4.45, -4.45, -4.45, -4.45, -4.75, -4.75, -4.75, -4.75, -4.75, -4.75, -4.75, -4.47, -4.47, -4.75, -4.75, -4.75, -4.75, -4.47, -4.47, -4.47, -4.47, -4.75, -4.75, -4.75, -4.75, -4.75, -4.75, -4.75, -5.06, -5.06, -5.06, -5.06, -5.06, -5.35, -5.35, -5.35, -5.35, -5.35, -5.35, -5.35, -5.35, -5.01, -5.01, -5.29, -5.29, -5.58, -5.75, -5.75, -5.75, -5.75, -6.0, -4.55, -3.72, -3.16, -1.74, -0.87, 0.0, 0.0, 0.0, 0.0, 0.0, 0.0, 0.0, 0.0, 1.54, 2.28, 5.55, 7.04, 5.62, 0.79, 0.0, 0.0, 0.0, 0.0, 0.0, 0.0, 0.0, 0.0]}]